GFSGBSN_850_dewp_000.txt.gz
Dewpoint
3 4 2 -2 -7 -4 -3 -3 -3 -3 -2 -3 -1 1 1 1 -0 0 1 1 1 3 2 3 3 1 3 5 3 2 5 -5 2 10 9 8 6 6 6 5 5 5 4 4 3 3 1
5 4 4 1 -6 -4 -4 -2 -2 -3 -3 -1 1 0 -1 -1 -1 -2 -3 1 1 2 1 -1 2 1 5 5 -1 4 7 3 -4 9 9 8 6 6 5 6 5 4 2 1 0 -0 -0
5 3 4 1 -4 -5 -4 -2 -1 -1 0 2 1 0 -0 0 -0 -2 -3 -3 1 3 3 -1 2 3 5 4 -1 1 6 7 -2 8 10 8 6 6 6 6 4 1 3 2 0 -0 0
4 2 3 2 -3 -4 -6 -3 -0 -0 1 3 2 2 2 2 -0 0 -1 1 -1 2 1 -1 2 5 4 1 -1 2 3 7 5 10 9 7 6 6 6 5 1 1 1 3 0 0 -0
3 1 2 3 -1 -4 -6 -4 -1 0 1 4 4 4 4 3 3 3 -0 -1 -1 -1 -1 -0 4 5 2 0 1 1 4 5 6 10 10 9 8 7 6 5 3 2 4 3 1 -1 -1
-0 -0 1 3 2 -5 -5 -3 -1 2 2 2 4 5 5 5 3 4 1 -0 1 3 2 4 4 4 4 5 -1 0 2 4 7 10 10 10 10 7 4 3 8 4 4 2 1 -2 -0
6 1 -2 -1 3 -5 -4 -3 -2 -2 -1 2 4 5 5 5 5 5 3 2 4 4 5 4 4 3 4 3 3 3 0 5 8 10 10 10 11 11 9 3 2 1 1 1 -1 -2 -0
7 2 -2 -5 -4 -6 -4 -3 -3 -2 -1 1 3 4 5 6 5 5 4 5 4 3 5 3 4 3 5 3 4 7 5 8 9 10 9 11 11 9 6 3 1 1 1 1 -0 -1 -1
7 6 -1 -4 -6 -5 -4 -3 -4 -2 -1 1 2 5 5 5 4 5 4 4 5 3 3 3 3 3 4 3 6 7 9 9 8 8 9 10 9 7 4 2 3 2 2 1 2 1 -0
6 7 -0 -2 -4 -5 -5 -4 -3 -2 -1 0 3 6 6 5 5 5 6 5 4 4 6 5 5 3 5 4 8 7 9 9 7 8 8 8 4 6 6 3 0 2 -0 1 1 2 3
6 7 6 -2 -2 -5 -5 -4 -3 -2 -1 -0 3 7 6 6 6 5 6 5 4 6 8 5 5 5 5 6 8 8 9 8 8 7 7 8 4 5 3 2 -0 1 0 0 0 1 1
6 6 7 5 -1 -2 -5 -4 -3 -2 -2 -1 1 6 6 5 4 5 5 5 6 8 8 7 7 8 5 8 7 7 8 8 7 5 3 2 0 1 1 -0 -0 0 -1 1 1 1 4
6 6 6 7 1 -1 -3 -4 -3 -2 -2 -2 -1 3 6 6 6 5 5 5 7 10 6 8 8 6 6 7 7 8 8 9 8 7 7 4 -3 -6 -2 -2 -4 -1 1 5 5 5 6
6 6 6 6 6 -1 -1 -3 -3 -2 -3 -2 -1 1 5 6 7 7 6 8 10 8 8 6 6 6 8 6 7 7 8 7 4 1 3 5 3 -3 -6 -1 -1 -1 1 5 7 7 5
6 6 6 6 6 5 -3 -1 0 -1 -3 -2 -1 1 2 3 5 7 7 10 9 8 6 7 6 8 9 7 6 6 6 4 2 2 3 2 3 -2 -3 -5 -2 -1 3 1 4 3 4
6 6 6 6 6 6 2 -2 0 -2 -3 -2 -0 2 4 6 6 7 9 9 9 7 5 6 8 7 9 6 5 5 6 5 7 3 3 2 3 0 -2 -3 -5 -1 -2 3 3 6 5
6 6 6 6 6 6 5 1 -0 -3 -3 -1 4 5 5 7 7 8 9 9 9 5 7 9 8 8 6 6 4 6 7 6 6 5 4 3 3 4 -0 1 1 -0 -1 -2 1 2 4
6 6 6 6 6 6 7 5 1 -3 -2 4 5 4 5 7 6 6 8 9 8 8 8 8 4 4 7 8 6 8 8 7 5 5 6 5 4 5 4 0 -1 -1 0 -1 1 2 2
6 6 6 6 6 6 7 7 1 -3 -2 3 4 4 6 7 7 6 5 6 7 8 7 7 8 7 5 7 8 7 6 5 5 5 6 4 6 7 6 4 2 3 1 -1 1 1 4
5 6 6 6 5 5 7 7 3 -3 -2 3 4 3 2 5 4 5 5 5 6 6 6 5 5 5 6 6 5 6 6 5 4 4 3 2 3 5 7 5 3 5 4 2 1 3 2
4 5 6 5 5 5 6 6 6 -2 -2 3 2 2 3 3 2 2 2 3 4 5 4 4 4 4 5 6 5 6 5 4 3 2 2 1 2 2 1 0 -0 2 3 4 4 2 2
4 5 6 5 5 5 6 6 6 -0 -2 2 2 2 2 2 1 1 2 2 3 2 3 5 4 2 2 4 4 6 5 4 4 2 2 1 2 -2 -3 -3 -2 -2 -3 -3 -1 2 2
4 4 6 5 5 5 5 6 6 1 -2 1 2 2 0 1 1 1 2 1 1 2 0 0 2 1 0 -1 -2 0 2 1 2 2 2 0 -2 -2 -3 -0 0 2 0 -1 -3 -4 -4
3 4 5 4 5 5 5 6 6 4 -1 1 2 2 -0 1 1 1 1 -0 -0 -0 1 -1 -0 -0 -1 -3 -3 -4 -3 -1 -0 -0 -0 0 -0 0 1 1 5 1 -1 -1 -1 -1 -2
4 4 4 4 5 5 5 6 7 6 -1 -1 1 2 0 1 1 1 -1 -0 -2 -2 -1 -1 -2 -2 -3 -3 -1 1 2 1 1 2 1 -2 -0 2 4 4 3 2 1 1 1 2 1
4 3 4 4 4 5 5 6 6 7 5 2 4 3 2 0 0 -0 -1 -2 -1 -1 -2 -3 -3 -3 -2 -0 3 5 5 4 3 3 0 -1 -1 1 2 4 5 1 -0 -1 -1 2 1
4 2 3 4 4 5 5 5 6 7 7 6 6 5 6 2 1 -1 -1 0 -1 -1 -0 -2 -3 -3 -1 2 5 5 6 2 4 4 3 1 1 3 4 4 3 0 -0 -0 3 0 1
3 1 2 3 3 4 5 5 6 6 7 7 7 6 6 5 2 3 2 0 1 1 3 -0 1 0 1 3 4 3 4 2 2 2 3 3 3 3 3 4 4 0 1 3 1 1 -0
2 1 0 1 2 3 4 5 6 6 7 7 7 6 6 6 5 4 3 2 3 3 2 -1 3 1 1 3 2 2 3 1 2 4 0 3 3 4 3 2 0 0 0 0 0 0 1

GFSGBSN_850_dewp_003.txt.gz
Dewpoint
6 5 4 2 -1 -7 -3 -1 -3 -3 -3 -2 -3 -1 -0 0 0 0 1 2 3 0 0 3 3 2 3 5 3 4 6 2 -5 6 11 9 7 6 6 6 5 5 5 4 4 4 2
5 6 4 4 -1 -6 -5 -2 -2 -1 -1 -0 -0 -1 -1 -1 -2 -1 -1 1 3 1 0 2 3 3 3 4 1 0 5 6 2 -0 10 9 7 6 6 6 6 5 5 4 3 2 0
5 6 4 5 1 -5 -5 -3 -1 -1 -0 1 2 2 1 -1 -0 1 -1 -1 -1 2 1 2 -1 3 4 3 -1 -0 2 6 6 -1 10 9 7 6 6 6 5 4 3 2 1 2 1
5 3 3 4 1 -5 -5 -5 -1 -0 0 2 4 4 3 2 2 0 1 1 0 0 1 2 -0 4 4 1 -1 2 2 5 5 5 10 8 7 6 6 5 1 1 1 3 1 0 -0
7 0 3 3 4 -0 -5 -5 -3 -1 2 2 3 4 5 5 4 3 2 2 1 0 0 3 2 4 4 2 1 -0 4 5 6 5 10 9 8 6 7 6 5 2 4 3 1 -1 -1
7 5 3 3 1 4 -4 -4 -4 -2 -1 -1 1 4 5 5 5 4 4 2 -0 1 1 2 2 4 3 2 -0 -0 2 5 7 6 10 10 8 8 6 7 11 5 4 3 2 -1 -0
6 7 2 4 -2 2 -4 -4 -3 -2 -2 1 2 3 5 5 6 6 4 2 1 3 3 3 4 4 3 1 1 -1 1 5 7 8 10 10 10 10 9 7 6 3 2 1 -0 -2 -1
6 6 6 -0 -2 -4 -5 -4 -3 -2 -2 0 3 3 5 5 6 5 5 2 2 2 4 2 4 3 3 3 5 -0 2 5 7 8 8 10 11 8 7 4 2 2 2 3 0 -0 -1
6 6 6 2 -1 -3 -5 -5 -4 -3 -2 -1 2 5 5 5 5 5 3 2 3 4 4 3 3 4 4 4 5 6 3 6 6 7 9 9 8 8 8 8 5 3 3 3 1 1 -0
6 6 6 6 1 -1 -4 -5 -4 -3 -2 0 2 5 6 6 5 5 5 3 3 3 4 4 4 2 2 4 5 5 5 7 6 7 8 9 6 9 8 7 7 9 1 1 2 2 4
6 6 6 6 6 1 -2 -5 -4 -3 -1 0 1 6 6 6 6 6 6 5 5 5 4 3 4 3 2 4 6 6 6 9 6 6 9 8 7 9 10 8 2 6 -1 0 1 1 1
5 6 6 6 6 6 -0 -3 -4 -3 -1 0 1 3 6 6 5 4 5 5 4 6 8 6 5 5 6 5 6 8 8 9 5 7 4 4 5 7 7 4 -0 -0 -0 0 1 1 4
6 5 5 6 6 6 5 -1 -2 -3 -2 -0 -0 -0 5 6 6 4 4 5 7 8 4 7 5 5 5 6 8 8 9 9 8 9 8 2 2 -1 -2 -1 -1 -1 2 5 6 6 6
5 5 6 5 6 6 6 3 -1 0 -0 -1 -1 -1 0 6 7 5 5 6 8 7 7 5 6 5 6 6 8 9 9 9 6 5 6 5 7 -3 -5 -1 0 0 2 5 7 7 5
6 6 5 5 6 6 6 6 1 0 -0 -2 -2 -0 1 2 5 6 6 7 9 7 6 7 6 7 8 7 8 8 8 7 4 3 5 4 3 -3 -4 -5 -2 -1 2 1 4 3 5
6 6 6 5 6 6 6 7 5 2 -1 -2 0 3 4 6 3 6 7 9 8 5 5 5 7 7 8 7 8 8 7 6 4 0 -0 1 2 0 -3 -4 -5 -1 -2 3 3 7 6
6 6 6 6 6 6 6 7 7 3 -3 2 5 5 6 7 5 7 10 9 6 4 5 6 6 8 6 6 6 7 7 6 5 4 3 1 1 3 -1 0 0 -2 -2 -1 1 2 4
6 6 6 6 6 6 6 7 7 2 -3 3 6 5 7 6 7 7 9 9 4 5 8 8 6 4 4 3 4 7 7 6 5 4 6 4 3 4 3 1 -1 -1 -1 -2 2 2 1
6 6 6 6 6 6 6 7 7 3 -3 1 4 6 7 7 8 7 8 8 8 8 8 7 4 3 5 4 7 6 7 5 5 4 6 4 5 7 6 4 2 2 0 -2 -0 1 2
6 6 6 6 6 5 6 6 7 6 -3 -0 5 4 7 7 6 6 6 8 8 7 6 5 6 5 5 6 5 7 7 4 4 4 3 2 4 4 5 5 4 4 3 0 0 3 1
6 6 6 6 6 5 6 6 6 6 -3 0 4 2 3 4 3 3 3 5 7 7 5 5 6 6 6 6 5 6 5 4 3 2 1 -0 3 1 1 0 2 3 4 2 1 -0 1
6 6 6 6 6 5 5 6 6 6 -4 1 3 2 2 2 1 1 2 2 3 2 5 6 7 5 5 5 4 6 4 4 4 2 1 -0 2 -2 -3 -2 -3 -3 -2 3 2 2 1
6 6 6 6 6 5 5 5 6 6 -2 1 2 2 1 2 1 1 2 2 2 1 -0 2 2 2 4 0 -2 0 1 0 1 2 1 -2 -2 -3 -2 -1 -1 -1 -1 -2 -4 -4 -4
5 6 5 5 6 5 5 6 6 6 -2 -0 2 3 0 1 1 1 1 -0 2 -1 1 -1 -1 -1 -2 -3 -3 -2 -2 -1 0 0 -2 -2 -2 -1 -1 1 3 -1 -0 -1 -1 0 -3
5 6 5 5 5 5 6 5 6 6 0 -1 1 3 -0 1 0 -1 -1 -1 -2 -2 -1 -2 -2 -2 -3 -4 -0 1 2 -0 1 2 -0 -2 -0 2 4 3 1 2 1 0 2 3 1
4 6 4 4 5 5 6 6 6 7 5 0 3 3 1 0 -0 -1 -1 -2 -1 -1 -2 -3 -2 -3 -3 0 3 3 4 2 4 3 -1 -1 -1 2 3 5 5 1 -0 -1 -2 5 1
5 6 5 4 5 4 6 6 6 6 7 4 5 5 4 0 1 -1 -1 -1 -2 -0 -1 -3 -3 -3 -1 3 5 4 5 2 5 4 2 1 1 3 4 4 3 0 -0 -0 3 0 1
5 6 4 3 5 4 5 6 6 6 6 7 6 6 6 2 3 2 1 -0 0 0 2 -1 1 0 0 4 4 4 4 2 3 2 1 2 3 3 3 4 5 0 1 3 1 1 -0
5 6 4 3 4 3 4 5 6 6 6 7 6 6 6 5 3 3 2 2 2 3 0 -1 2 0 1 3 2 2 3 1 2 4 1 4 2 3 2 2 1 0 0 0 -0 -0 0

GFSGBSN_850_dewp_006.txt.gz
Dewpoint
7 5 6 4 5 -1 -4 -4 -3 -1 -1 -1 -2 -1 -1 -2 0 0 -0 -0 1 2 2 2 2 3 4 5 4 3 6 6 4 1 9 10 8 7 7 6 5 5 5 4 4 4 4
7 5 6 4 4 3 -3 -4 -4 1 -1 -0 0 1 0 -1 -2 -2 -1 -2 -1 1 2 2 1 3 4 5 1 0 4 6 7 6 6 9 8 6 6 6 6 5 5 5 5 4 3
6 6 4 3 2 3 -3 -5 -5 0 1 0 3 3 3 2 1 -1 -1 -2 -3 -1 2 2 2 4 4 2 0 -0 0 1 6 7 4 9 8 6 6 6 5 5 5 3 2 2 2
7 7 4 2 -1 2 -0 -4 -5 -3 3 2 2 3 4 4 3 2 -0 1 -0 -3 0 2 2 2 4 3 -1 0 3 1 2 6 4 9 8 7 6 5 3 3 2 5 2 -0 -0
6 6 6 3 0 1 4 2 -4 -4 -1 1 -0 1 3 4 5 5 2 1 2 0 -2 2 3 3 3 2 0 -0 2 4 5 6 6 7 8 8 6 6 4 2 5 3 2 -1 -0
6 6 6 6 1 1 2 3 -3 -4 -3 -2 1 1 2 4 5 5 4 4 3 2 1 3 4 3 2 3 2 -0 -2 5 7 6 8 10 9 8 8 8 11 7 5 3 3 0 -0
6 6 6 6 3 2 -4 0 -4 -3 -3 -2 -1 2 4 4 4 5 5 4 2 2 2 3 3 2 3 2 3 1 -2 4 7 5 9 9 10 11 9 8 6 5 3 5 1 -2 -1
6 6 6 6 6 -0 -3 -5 -4 -4 -3 -3 -1 2 5 5 5 5 5 4 0 1 3 1 4 4 1 4 5 2 0 5 7 4 7 10 10 8 7 7 7 3 3 3 2 -0 -1
6 6 6 6 6 5 -1 -3 -4 -4 -3 -2 -0 2 5 5 5 6 5 3 1 2 3 3 2 4 4 3 4 4 2 5 6 2 7 9 9 7 7 6 6 4 4 5 5 1 0
5 6 6 6 6 6 5 -1 -3 -4 -3 -2 0 1 5 6 5 5 5 4 3 2 5 4 3 3 3 4 4 3 2 4 5 3 6 9 8 8 8 9 7 10 3 2 2 3 4
5 5 6 5 5 6 6 4 -1 -3 -4 -2 0 1 4 6 4 6 5 5 3 4 5 2 3 2 1 4 4 5 -2 4 6 5 7 9 9 10 9 8 7 9 2 3 2 2 1
5 5 5 5 5 6 6 6 1 -1 -3 -2 -1 0 3 5 4 6 5 4 4 6 6 4 4 4 4 3 4 5 5 5 5 5 6 6 6 8 9 7 5 3 2 1 1 1 5
5 5 5 5 5 5 5 6 6 3 -0 -0 0 1 2 3 5 5 5 5 5 7 4 6 4 4 4 5 5 6 6 7 7 8 8 4 8 3 5 4 1 3 3 8 6 6 6
5 5 5 5 5 5 6 6 6 6 1 1 1 1 2 3 6 3 4 4 7 6 4 4 5 4 5 5 6 5 7 9 7 4 7 8 9 2 -1 6 6 4 4 5 7 7 5
5 5 5 6 6 5 6 6 6 7 5 3 -0 -0 4 4 6 3 4 6 7 6 5 6 4 5 6 5 7 7 7 8 7 3 6 8 7 -3 -3 -3 4 1 4 1 4 3 5
5 5 5 6 6 5 6 6 6 7 6 1 1 3 6 5 6 4 5 6 7 5 5 4 5 5 8 6 8 7 8 7 7 3 0 2 2 -0 -3 -4 -5 -0 -1 3 3 7 7
5 5 5 6 6 6 6 6 6 7 4 0 6 5 7 7 5 6 6 5 7 4 4 5 6 6 6 6 8 7 7 6 4 2 -0 -1 1 2 -2 -0 -1 -2 -0 0 2 3 5
5 5 5 6 6 6 6 6 6 7 3 0 5 5 6 5 7 7 7 9 5 6 7 7 5 5 5 5 7 8 8 5 3 4 5 2 2 3 2 0 -2 -3 -2 -1 4 3 1
5 5 5 5 6 6 6 6 6 7 5 -1 4 7 6 6 9 8 8 7 6 7 8 8 5 4 3 5 8 7 8 5 5 4 5 3 4 6 6 4 2 1 -1 -2 -0 0 2
5 5 5 6 6 6 6 6 6 7 6 -1 5 6 6 6 7 7 8 7 8 8 8 6 5 4 4 6 5 7 7 4 4 4 4 2 3 3 6 4 3 4 2 -1 0 3 2
5 5 5 6 6 6 6 6 6 7 6 -0 4 3 4 6 6 5 5 7 9 8 6 5 6 4 5 6 6 7 5 4 2 3 2 2 3 2 -0 2 3 3 3 1 1 1 2
5 4 5 5 5 5 6 6 6 6 5 0 3 2 3 2 1 2 2 4 5 4 5 6 7 5 4 6 5 7 5 5 4 2 1 0 2 -1 -2 -2 -3 1 2 1 1 0 -1
6 4 5 5 5 5 6 6 6 6 4 2 2 3 2 1 1 1 3 2 3 2 2 3 4 4 2 1 -0 1 1 0 2 2 1 -1 -1 -0 1 -1 -1 -2 -2 3 1 -0 1
6 5 5 5 5 5 6 6 6 6 5 1 2 3 1 1 1 1 1 1 2 0 2 -0 -0 3 -1 -1 -1 -2 -1 0 -0 -0 -3 -2 -2 -2 -2 0 -1 -3 -0 -3 -1 -1 -2
6 6 5 5 5 5 6 6 6 6 6 -0 1 3 0 1 0 -1 -0 -0 -2 -2 -1 -1 -2 1 -2 -2 2 6 2 2 1 -0 -1 -3 -1 2 2 1 -0 2 0 1 1 3 1
6 6 6 5 5 5 5 6 6 6 7 -0 3 3 1 0 0 -1 -1 -2 -1 -2 -2 -3 -2 -2 -3 1 1 6 8 5 1 2 -2 -1 -1 0 3 4 4 0 -0 -1 -0 4 1
6 6 6 5 5 5 5 6 6 6 7 4 4 5 4 0 1 -1 -1 -1 -2 -2 -1 -3 -3 -2 -1 3 4 5 4 1 2 2 1 1 2 2 4 4 3 -0 -0 -1 3 2 2
6 6 6 5 5 5 5 5 6 6 7 6 5 6 6 1 3 2 1 -1 -0 -1 -1 -3 -1 -1 1 3 4 4 4 2 3 2 1 0 2 3 3 4 4 -0 1 2 1 1 -0
6 5 6 5 5 5 5 5 6 6 6 7 7 6 5 2 3 2 2 2 2 2 -1 -1 1 -0 0 3 2 2 3 1 2 4 1 3 1 2 2 3 1 1 0 0 -0 -0 -0

GFSGBSN_850_dewp_009.txt.gz
Dewpoint
7 7 6 6 5 5 4 -4 -6 -5 -3 -1 -0 -1 -3 -1 -2 -0 0 -1 -1 0 1 1 2 3 5 5 4 5 6 4 6 8 4 9 10 8 8 6 5 4 4 4 3 3 4
7 7 6 4 4 4 5 -1 -6 -6 -3 -0 0 1 1 1 -1 -1 -2 -2 -2 -1 1 2 2 3 4 5 3 1 3 5 5 7 6 7 9 8 7 6 6 5 5 5 4 4 4
6 7 7 4 1 0 5 -1 -6 -6 -4 2 1 4 4 3 3 2 -1 -2 -2 -2 -0 2 2 2 4 4 0 -1 -1 1 2 6 7 5 8 7 6 6 6 5 6 5 4 4 3
6 6 7 6 3 0 2 3 1 -5 -5 -2 2 3 3 4 4 4 3 1 -0 -1 -3 1 2 3 4 3 1 -0 0 0 1 2 5 5 9 8 6 5 5 6 4 8 5 0 0
6 6 6 6 6 2 0 3 5 -0 -5 -5 -2 1 -1 -0 1 5 5 3 1 2 1 1 3 4 3 2 0 -1 -0 2 3 1 4 5 8 9 6 5 5 4 9 6 6 1 2
5 6 6 6 6 6 3 -2 4 1 -4 -4 -2 1 1 2 3 4 5 5 3 2 3 2 3 4 3 3 2 1 -1 -1 5 5 7 7 8 10 8 8 11 6 7 4 4 1 0
5 5 6 6 6 6 3 0 -2 -1 -4 -3 -1 0 1 4 4 5 5 6 4 3 3 2 3 1 3 2 3 2 0 0 4 7 6 7 10 11 9 8 6 4 5 5 4 -1 -0
5 5 6 6 6 6 6 1 -2 -5 -4 -4 -3 -0 1 4 5 5 5 5 3 1 2 1 3 3 2 3 5 3 1 2 5 7 4 7 9 8 7 7 5 4 5 4 3 -0 -0
5 5 5 5 5 5 6 6 2 -3 -4 -3 -3 0 1 4 5 5 5 5 4 2 3 3 1 4 4 3 4 3 2 2 5 4 5 7 8 6 7 8 8 6 6 5 6 2 1
4 5 5 5 5 5 5 5 5 1 -3 -4 -3 -0 2 5 4 5 6 5 3 3 4 4 3 2 3 3 3 2 3 3 5 4 3 8 7 8 8 8 8 9 3 4 3 6 8
5 5 5 6 5 5 5 5 6 5 -1 -3 -3 -1 2 4 4 4 4 5 4 2 6 3 3 2 2 2 2 3 2 3 5 2 4 9 10 8 9 8 7 8 5 6 4 4 2
4 4 4 6 5 5 6 5 5 6 5 -1 -2 -1 1 2 4 4 5 5 3 5 5 5 3 4 4 3 3 4 4 4 5 2 3 8 7 8 7 6 6 1 4 4 2 2 5
4 4 4 5 5 5 5 6 5 6 6 5 1 2 3 3 4 5 5 3 5 6 3 5 5 4 3 4 5 4 4 5 7 6 5 8 9 8 8 6 3 3 8 11 9 7 7
4 4 5 5 5 5 5 6 6 6 6 6 4 5 4 4 3 5 4 4 6 6 4 3 4 3 4 3 5 5 4 5 6 5 4 9 11 6 7 7 6 8 8 9 9 7 5
5 5 5 5 5 5 6 6 6 6 6 6 6 4 5 5 4 4 4 5 5 5 3 4 3 4 6 4 6 5 5 4 6 5 4 7 8 2 2 2 5 6 9 2 4 3 6
4 5 5 4 5 5 6 6 7 6 6 6 4 5 5 6 5 4 3 6 5 4 4 3 3 3 5 5 6 4 5 5 7 5 2 5 3 0 -4 -1 -3 4 2 8 4 7 7
4 5 6 4 5 5 5 5 6 5 6 6 4 5 6 5 5 3 5 5 5 6 3 2 4 4 3 5 6 6 6 7 6 5 0 -1 1 2 -2 0 1 2 6 3 2 3 6
4 5 6 4 5 5 5 5 5 5 6 4 4 6 6 5 5 4 6 5 5 5 4 4 4 5 5 5 5 7 7 6 6 3 2 -1 1 3 1 1 -2 -1 1 2 4 4 2
5 5 6 5 5 5 5 5 5 6 6 5 4 6 6 6 6 6 5 7 7 6 6 7 5 4 3 6 8 7 7 5 4 4 3 2 3 6 5 3 2 1 -2 -1 0 0 2
5 4 5 5 5 5 5 5 5 6 6 5 5 7 6 5 6 7 8 7 8 7 7 7 4 3 4 6 5 8 8 5 5 3 3 1 3 5 6 4 3 4 0 -1 0 2 2
5 5 5 6 4 5 5 5 5 6 6 5 4 4 6 7 7 6 7 7 8 8 7 6 6 4 4 7 7 7 7 5 3 4 2 1 4 2 -0 2 2 2 2 -0 1 1 2
4 5 5 6 4 5 5 5 6 6 6 6 4 2 3 2 2 7 6 8 7 7 6 7 6 4 4 6 6 7 5 5 5 2 3 1 3 -1 -1 -0 1 3 2 1 -0 -0 0
2 6 6 6 4 5 5 5 5 6 6 3 3 3 2 1 1 4 5 6 7 5 6 3 4 3 5 2 1 3 3 3 3 2 1 3 0 1 2 -1 -2 1 0 2 1 0 -0
1 4 6 6 4 5 5 5 5 6 6 6 2 3 2 2 1 2 1 3 5 3 7 -0 1 2 -1 -0 -1 -1 -1 -1 1 -2 -3 1 1 -0 -0 -1 2 -0 -1 0 1 -2 -2
1 3 6 6 5 5 5 5 5 6 6 6 1 3 2 1 0 -0 1 0 -0 0 1 -1 -1 -0 -0 -0 5 6 5 1 1 -1 -1 -2 -1 1 2 1 -1 2 0 0 1 1 -1
1 2 6 6 5 5 5 5 5 6 6 6 1 3 3 0 0 -1 -1 -2 0 -1 -1 -1 1 -1 4 3 3 8 9 6 2 1 -2 -1 -1 2 3 3 2 -1 -0 -1 -0 3 1
1 2 6 6 6 5 5 5 5 6 6 6 2 4 4 0 1 -1 -1 -1 -2 -2 -0 -2 -1 0 2 4 4 5 5 2 3 2 1 1 1 1 4 3 2 -0 -0 -1 3 1 2
0 1 5 6 6 5 5 5 5 5 6 6 6 5 6 2 3 2 0 -1 -1 -3 -1 -3 -1 -2 2 5 6 4 4 2 2 0 0 1 2 2 3 3 2 -0 0 2 1 1 1
-0 1 4 6 5 5 5 5 5 5 6 6 6 6 6 2 3 2 2 1 1 1 -3 -2 -0 -1 -1 3 2 2 3 2 2 4 1 2 -0 2 1 2 1 1 0 0 1 -0 -0

GFSGBSN_850_dewp_012.txt.gz
Dewpoint
6 7 6 7 4 6 5 5 1 -5 -5 -1 0 -0 -3 -4 -2 -3 -2 -1 -1 1 2 2 1 3 5 6 4 5 5 5 2 7 8 5 9 9 9 7 6 6 4 4 3 4 3
6 6 6 7 5 3 1 5 3 -5 -6 -3 1 1 1 1 1 1 -2 -2 -1 -1 1 2 1 2 5 4 3 2 3 4 4 6 8 6 8 7 7 7 7 5 5 4 4 4 4
6 6 6 6 6 5 1 3 4 -3 -5 -6 2 1 3 3 3 3 2 -0 -2 -2 -1 2 3 3 5 3 1 -0 1 1 2 4 6 6 7 9 6 7 7 6 6 5 5 4 4
6 6 6 6 6 6 6 1 4 3 0 -5 -2 3 2 2 2 3 3 3 1 0 -2 1 3 3 4 3 2 1 1 1 2 2 5 6 7 9 9 6 7 7 7 8 4 4 4
5 6 6 6 6 6 6 3 1 4 5 -1 -4 3 2 -0 -0 1 2 5 4 1 2 0 3 4 3 2 2 0 1 2 4 1 2 5 7 8 9 7 8 8 9 8 5 4 4
5 5 5 5 5 5 6 6 2 -2 5 1 -3 1 3 2 1 4 2 5 5 2 3 2 3 4 2 2 3 2 2 -0 1 4 4 6 6 9 10 9 10 8 8 6 6 3 2
4 5 5 5 5 5 6 6 3 -1 2 1 -3 0 1 1 2 4 4 4 4 4 4 2 2 1 2 2 2 3 2 1 2 4 6 5 7 8 9 8 5 3 4 6 4 2 2
4 4 5 5 5 5 5 5 6 2 -2 -4 -4 -2 1 2 2 5 5 5 4 3 4 3 3 2 3 3 3 3 3 1 2 3 4 5 8 6 8 6 5 5 6 6 3 1 2
4 4 4 5 5 5 5 5 5 5 2 -3 -3 -3 -1 2 2 5 5 5 5 4 3 3 3 3 3 2 2 3 3 1 1 2 4 6 5 4 9 8 6 6 5 4 5 4 4
5 4 4 5 5 6 6 5 5 5 5 -0 -3 -3 -1 2 5 5 5 6 5 4 4 3 3 2 3 3 3 1 2 0 2 2 5 3 3 6 9 8 6 8 5 5 6 8 9
4 4 4 4 5 6 6 5 5 5 6 5 -0 -3 -1 1 5 5 4 5 4 3 6 2 3 2 2 1 1 2 3 1 2 4 5 5 3 8 9 9 5 6 5 6 7 8 7
4 4 4 4 5 6 6 5 6 5 6 6 5 -0 -2 1 3 5 5 5 3 4 5 5 3 3 3 2 -0 3 3 1 3 4 4 1 6 5 8 6 6 4 5 5 5 5 9
5 4 4 4 4 5 6 5 5 6 6 6 6 5 1 1 4 3 5 3 5 6 3 6 5 4 2 2 2 4 4 4 6 7 7 4 8 8 6 9 5 5 8 12 11 11 9
5 4 4 4 4 5 6 5 5 6 6 6 6 6 4 3 3 3 4 4 6 5 5 4 4 3 3 2 3 5 3 3 4 6 4 7 11 10 7 8 8 7 7 7 9 8 6
5 5 4 4 5 6 5 5 6 6 6 6 6 6 5 5 4 4 3 5 5 5 4 5 3 4 3 2 4 5 2 1 5 4 5 8 9 7 7 5 5 8 10 3 4 3 5
3 5 4 4 5 5 5 5 6 6 6 6 6 5 4 5 4 4 3 6 5 4 3 4 2 1 3 3 6 3 1 -1 3 3 3 4 8 5 4 6 3 7 5 8 5 8 7
2 5 4 5 5 6 5 5 5 6 5 6 6 5 5 5 4 3 5 5 5 3 3 2 -0 2 0 2 5 2 2 3 1 3 4 3 4 4 3 7 8 7 9 8 5 4 5
1 4 5 5 5 6 5 5 5 6 5 6 3 6 6 5 4 3 5 4 4 5 4 2 0 -1 -1 1 4 6 2 5 0 3 5 2 2 8 5 1 2 4 6 6 8 6 3
1 2 5 5 5 6 5 5 5 6 5 6 4 6 5 5 6 5 4 5 4 6 4 1 3 0 -1 2 5 4 4 1 2 4 4 1 3 6 7 4 0 6 4 5 3 1 4
1 2 4 5 6 6 5 5 5 6 6 6 4 7 5 5 6 6 6 6 6 5 3 4 3 3 3 2 3 4 6 5 5 4 3 0 3 2 5 4 3 5 4 5 5 6 4
2 1 2 5 6 6 5 5 5 5 6 6 2 5 5 6 6 6 6 6 7 7 6 7 5 4 3 4 6 7 6 6 5 5 4 3 4 3 2 2 2 2 3 2 4 4 4
1 1 2 5 5 6 5 5 5 5 6 6 3 4 4 5 5 6 6 7 7 7 7 7 8 4 3 4 4 7 6 5 6 4 4 2 4 1 1 2 2 2 2 2 3 3 2
0 0 1 4 6 6 5 5 5 5 5 6 4 2 3 2 2 7 7 6 7 7 6 6 5 4 4 4 2 4 4 3 3 4 4 4 3 2 4 0 1 4 2 1 1 0 0
-1 0 1 2 6 6 6 5 5 5 5 6 3 3 3 3 2 4 4 6 7 7 8 1 2 3 1 1 2 3 3 2 3 0 2 4 4 2 2 1 7 1 -1 -0 1 -0 -1
-0 0 1 2 5 6 6 5 5 5 5 6 6 3 4 3 1 0 2 4 4 3 3 -0 0 0 -0 0 3 5 4 6 2 0 -0 4 6 7 5 3 1 -1 -0 -0 2 2 -1
-1 -0 0 1 5 6 5 5 5 5 5 6 6 4 3 1 1 -0 -0 4 5 4 2 -1 1 0 5 3 7 9 10 8 5 5 -1 0 5 8 4 4 5 -1 -0 -2 -1 1 -1
-1 -1 -0 1 4 5 5 5 5 5 5 6 6 3 4 2 1 -1 -0 2 3 4 2 -0 1 2 6 5 6 8 7 3 6 6 6 4 3 6 6 8 1 -1 -1 -0 1 2 0
-2 -1 -0 1 2 6 5 5 5 5 5 6 6 4 5 2 2 1 0 -1 -0 2 4 -1 3 3 5 7 7 6 5 5 1 1 1 3 4 4 5 8 6 -0 -0 1 2 1 1
-2 -2 -0 1 3 5 5 5 4 5 5 6 6 5 6 5 3 3 2 0 -0 -2 1 1 3 2 5 6 5 3 3 2 2 2 0 2 2 1 1 1 1 1 1 0 1 1 0

GFSGBSN_850_dewp_015.txt.gz
Dewpoint
5 5 6 7 6 6 6 5 5 3 -5 -6 -2 1 -0 -4 -1 -1 -2 -2 -2 -3 0 3 2 2 4 6 5 5 5 4 5 7 7 6 3 5 7 6 7 6 4 3 3 2 2
6 5 5 6 6 6 4 1 3 4 -1 -7 -5 1 1 1 1 2 0 -2 -2 -2 -2 -0 2 2 5 4 3 3 4 4 3 5 6 6 4 3 4 5 6 6 4 4 3 3 3
5 5 5 6 6 6 6 6 1 3 1 -5 -6 -1 2 3 4 3 3 2 -1 -4 -3 -2 3 4 5 3 2 2 2 2 2 2 5 5 4 4 5 5 4 5 6 4 3 3 3
6 5 5 5 5 6 6 6 6 1 3 2 -4 -4 4 3 3 3 3 4 2 0 -4 -3 1 5 5 3 3 3 2 2 2 2 2 4 5 4 8 8 5 5 7 9 4 3 3
4 5 5 6 5 5 6 6 6 4 2 4 5 -3 -0 3 2 0 1 2 5 3 0 -1 1 5 3 3 3 2 2 2 1 2 2 2 5 6 7 9 9 8 9 8 7 2 2
4 5 5 5 5 5 5 5 6 6 2 1 5 1 -3 2 3 2 2 3 5 5 2 4 4 4 2 2 2 2 2 2 1 1 1 2 5 6 7 10 11 9 9 6 7 3 4
4 4 5 5 5 5 5 5 6 6 4 -1 4 2 -3 -0 2 2 3 4 4 4 4 3 2 1 1 1 2 3 2 2 2 1 3 1 6 7 6 6 6 5 6 6 4 2 3
4 3 4 4 5 5 5 5 5 5 6 2 2 -1 -3 1 1 4 4 5 4 3 4 4 2 2 1 3 2 2 2 2 1 2 0 3 7 4 2 5 8 9 6 5 3 2 3
5 3 4 4 5 5 5 5 5 5 5 6 0 -3 -3 0 2 2 3 4 5 4 4 3 3 3 2 3 1 1 2 1 -1 1 1 4 4 3 2 6 9 8 7 3 4 3 2
6 4 4 4 4 5 5 5 6 5 5 6 4 -2 -3 1 3 2 5 5 5 5 4 4 4 4 3 3 3 1 2 1 -0 1 0 3 1 4 3 6 8 10 5 3 4 6 8
6 5 4 4 5 5 5 6 6 5 6 6 6 1 -3 -1 4 5 5 5 5 4 7 2 4 3 4 3 1 0 -0 2 1 0 4 5 4 5 6 7 8 9 4 4 5 7 8
3 4 5 4 4 4 5 6 6 5 6 6 6 5 -0 2 1 4 4 4 4 4 6 5 3 3 3 4 1 1 0 1 -0 0 4 2 0 3 5 6 7 8 5 6 6 6 9
2 2 4 5 4 4 4 5 6 6 5 6 6 6 4 3 4 5 4 4 4 6 3 6 5 4 5 4 3 2 2 3 5 6 6 4 4 4 5 9 9 10 9 11 11 11 7
-1 1 2 5 5 4 3 5 6 5 5 6 6 6 6 3 4 4 4 3 6 4 4 4 4 4 5 2 1 -0 2 4 2 4 6 6 8 6 5 9 8 9 8 7 8 8 5
-0 1 1 4 5 4 3 5 6 5 5 6 6 6 6 5 4 4 3 5 6 5 4 5 5 6 6 2 0 2 3 4 2 2 7 7 7 5 7 8 7 8 9 3 5 3 5
-0 2 1 2 5 5 5 5 5 5 6 6 6 6 6 5 5 5 4 5 5 4 4 4 5 2 2 1 3 3 6 2 0 -0 2 6 8 7 8 7 7 7 5 7 5 7 6
0 2 1 2 5 5 5 6 5 5 6 6 6 5 5 5 5 4 4 5 5 4 4 5 4 1 -0 3 3 4 2 -1 -2 -1 3 6 6 7 7 9 9 9 9 7 4 4 5
-0 0 2 2 5 5 5 6 5 5 6 6 5 5 6 5 5 3 4 4 4 4 4 4 4 -2 -2 -1 3 2 1 -2 -3 -1 6 6 8 9 7 4 5 6 8 5 6 6 4
0 1 1 1 2 5 5 6 5 5 6 6 4 5 5 5 5 5 4 4 4 5 5 5 1 -2 -3 1 2 3 2 -3 1 -1 5 5 5 10 9 6 5 8 6 5 5 4 5
-1 1 2 1 2 5 6 6 5 5 6 5 4 7 5 5 4 5 5 5 5 4 4 3 1 -2 -2 1 -0 2 4 1 2 -1 3 4 4 4 6 5 6 9 7 5 5 6 4
-1 0 1 1 2 5 6 6 4 5 6 6 4 5 4 6 5 5 5 5 6 7 5 3 5 1 0 1 1 3 2 3 2 1 2 4 5 2 1 1 3 5 6 6 6 5 5
-1 -0 -0 1 2 3 5 6 5 5 6 6 4 1 5 6 4 5 5 6 6 6 4 7 7 3 1 1 -0 4 3 4 4 4 4 3 5 2 3 2 2 3 3 3 4 4 4
-1 -0 0 1 2 2 5 6 5 5 5 5 6 4 3 2 4 6 6 5 6 5 6 6 6 4 3 1 -1 2 3 2 3 5 5 5 5 4 4 1 3 5 3 2 2 2 2
-1 -1 -1 0 1 2 4 5 5 5 5 5 5 4 4 2 -1 2 6 6 6 6 7 5 6 6 3 2 2 4 3 3 3 3 3 4 5 3 5 3 8 1 -1 0 1 1 1
-2 -1 -1 -1 0 1 4 6 5 5 5 5 5 3 3 3 0 2 5 7 5 6 6 3 3 2 1 2 5 7 7 7 5 3 3 3 5 6 6 6 5 1 -1 0 2 2 -1
-2 -1 -1 -1 0 1 3 5 5 5 5 5 5 6 4 2 -0 -0 3 5 6 5 4 2 1 1 4 5 6 9 10 8 8 7 1 5 4 7 7 6 6 1 -1 -2 -1 3 -1
-2 -1 -1 -1 -0 1 2 5 5 5 5 5 5 6 4 3 1 0 0 4 5 5 4 1 3 4 6 6 8 8 8 5 9 9 7 6 8 8 9 7 6 -1 -1 -2 2 3 -1
-2 -1 -2 -1 -0 1 2 5 5 5 5 5 5 6 5 4 4 1 2 0 4 5 5 1 6 5 7 8 7 7 6 4 5 5 7 6 7 8 8 9 9 -1 -0 1 2 1 -0
-2 -1 -2 -1 -0 1 2 5 5 5 5 5 5 6 3 5 5 3 2 0 2 5 4 1 4 4 6 7 6 5 6 4 3 4 0 6 4 4 3 5 1 0 1 1 1 1 1

GFSGBSN_850_dewp_018.txt.gz
Dewpoint
5 5 6 5 6 6 6 6 5 4 4 2 -6 -4 1 0 -3 -2 -1 -2 -2 -1 -1 2 3 1 3 6 5 5 3 2 5 6 8 7 5 4 6 5 7 7 6 5 3 3 2
2 5 5 5 6 6 6 6 5 2 4 4 -2 -6 -1 1 1 2 2 1 -1 -1 -1 -0 2 2 4 5 2 4 4 3 4 5 7 7 6 3 3 4 5 6 6 7 5 3 2
2 1 5 5 5 5 6 6 6 6 3 3 1 -5 -4 1 2 4 3 3 2 -0 -2 -1 0 2 5 3 2 2 2 3 3 3 2 5 5 5 3 3 4 4 6 6 6 4 3
5 2 0 5 5 5 6 6 5 5 5 2 2 0 -5 3 3 3 1 1 3 3 1 -0 -1 4 5 3 1 3 2 2 2 2 2 2 4 4 4 6 6 7 6 9 6 5 4
6 5 1 3 4 6 6 5 6 5 5 5 2 5 2 -2 3 2 1 0 1 5 4 1 -0 4 2 2 3 1 3 2 1 1 1 1 2 5 4 6 8 8 9 8 8 4 4
7 6 4 3 4 5 6 5 5 5 6 6 2 4 5 -1 2 3 2 1 4 4 6 4 4 3 2 2 2 3 2 2 2 1 2 2 2 6 6 7 8 8 9 7 9 6 5
6 7 5 4 4 5 5 5 5 5 5 6 4 1 5 1 0 3 3 3 4 4 5 4 3 1 1 2 1 2 2 2 2 1 2 1 4 6 6 5 5 5 6 8 5 4 5
6 6 6 5 3 5 4 5 5 5 5 5 5 1 3 -0 0 2 3 4 4 4 4 4 3 3 2 2 1 1 2 2 2 3 1 3 5 2 2 3 5 6 7 8 6 4 4
3 5 6 6 4 4 4 5 5 5 6 5 5 4 1 -1 2 3 4 4 4 4 4 4 4 3 3 2 3 1 2 1 1 2 1 3 2 1 1 2 4 4 8 8 9 6 3
2 4 5 5 6 4 4 5 5 5 5 6 6 5 -0 -1 2 1 4 3 5 4 4 4 4 4 4 4 4 2 2 1 1 2 1 1 -0 0 2 3 3 6 4 7 8 9 10
0 2 2 4 5 4 5 4 5 5 6 6 6 6 2 -2 3 5 4 5 5 5 6 3 4 3 4 4 3 3 2 3 2 1 0 3 2 2 4 4 4 6 5 7 8 10 10
0 1 2 -0 4 4 5 5 5 5 7 6 6 6 4 2 2 4 4 4 4 5 6 5 3 4 5 4 3 3 2 3 2 2 0 1 1 2 2 3 3 3 6 9 9 9 11
-0 1 1 0 3 4 5 5 4 5 6 6 6 6 6 3 2 1 3 4 4 6 2 6 5 4 3 5 4 4 4 3 3 5 5 3 5 2 3 5 4 5 7 10 12 12 10
-1 0 1 0 1 3 4 5 5 4 6 6 6 6 6 4 4 5 4 3 5 2 4 4 4 4 5 5 5 5 5 4 1 3 4 4 4 5 3 4 7 7 7 10 11 11 7
-1 0 1 1 1 2 3 5 5 4 6 6 6 7 6 6 4 5 4 4 4 5 5 5 5 6 6 4 2 3 3 4 3 2 5 7 6 4 1 2 6 8 7 7 8 2 6
-1 0 1 0 2 1 3 5 4 5 6 6 6 7 6 6 4 5 4 5 4 3 4 4 6 5 4 3 4 2 1 0 1 0 1 4 7 6 5 5 6 9 7 10 8 8 9
-1 0 1 1 1 1 3 5 5 6 6 6 6 6 5 6 5 4 4 4 4 3 4 5 6 6 2 1 4 1 2 -0 0 -0 2 4 5 7 7 8 8 8 10 10 7 6 8
-1 -0 0 1 1 1 2 5 6 6 6 6 6 6 5 6 5 4 5 4 3 4 4 4 4 5 4 0 2 1 1 0 -1 -1 5 4 6 8 7 6 6 7 8 7 7 7 6
-1 -1 -0 1 1 1 2 4 6 6 5 6 5 5 6 5 6 5 4 3 3 5 5 5 5 3 -0 -1 3 2 2 -0 -2 1 4 4 6 9 9 8 9 9 8 8 7 6 7
-2 -1 -0 1 1 1 2 4 6 6 6 5 5 6 5 5 4 4 5 4 4 4 4 4 4 1 -1 -1 -1 3 2 1 0 0 5 6 6 7 10 8 8 9 9 8 7 8 6
-2 -2 -1 0 1 2 2 3 6 6 6 6 4 5 4 5 5 5 4 4 5 5 4 3 4 3 2 0 1 1 2 2 2 -0 3 5 9 8 7 6 6 7 8 7 7 6 6
-3 -2 -1 0 0 1 2 3 5 6 6 6 5 3 5 5 3 4 5 5 5 5 5 5 5 4 3 0 0 1 1 4 4 3 1 3 8 6 4 4 5 7 7 6 6 5 4
-3 -2 -1 -0 -0 0 1 2 3 5 5 6 5 4 4 3 5 6 6 5 5 5 4 4 4 3 5 1 -1 -0 1 2 4 3 4 5 6 6 4 2 3 5 5 5 5 4 4
-3 -2 -1 -1 -1 -1 1 2 4 5 5 6 5 5 5 5 2 3 6 5 6 5 6 5 6 6 5 2 3 4 5 4 4 3 3 5 6 6 5 3 7 2 -1 0 2 2 2
-3 -3 -1 -1 -1 -1 0 1 3 5 5 5 6 5 5 6 4 1 6 6 6 6 7 5 5 5 5 3 6 7 7 7 5 5 3 3 5 8 6 7 4 3 -1 0 2 2 0
-4 -3 -1 -1 -1 -1 0 1 3 4 5 5 5 5 5 5 3 0 3 5 6 6 4 4 4 3 5 6 6 8 9 8 8 7 4 4 5 8 8 7 7 2 -1 -2 -1 4 0
-4 -3 -2 -1 -1 -1 -0 1 3 5 5 5 5 5 5 5 4 1 1 3 6 5 5 3 3 3 6 7 8 8 9 7 9 8 8 7 7 9 8 8 6 0 -2 -2 3 4 0
-4 -2 -2 -1 -1 -1 -0 1 2 5 5 5 5 5 5 5 4 4 3 1 5 4 5 4 5 5 7 7 8 8 7 6 7 7 6 7 8 9 8 9 8 -1 -0 2 3 0 -0
-4 -3 -2 -1 -2 -1 -0 1 2 5 5 5 5 5 5 5 6 5 3 2 1 6 4 5 5 5 6 8 7 6 6 4 4 8 5 7 5 6 7 7 2 1 1 1 1 1 1

GFSGBSN_850_dewp_021.txt.gz
Dewpoint
6 3 -1 2 6 5 6 6 6 6 5 3 3 -2 -5 1 1 -3 -1 -0 -2 -2 -2 -1 3 2 3 5 6 4 3 3 4 4 7 7 7 6 5 6 6 7 7 7 6 6 5
7 7 4 -0 2 5 4 6 6 6 6 4 4 3 -5 -2 1 1 2 2 1 -1 -2 -2 0 3 3 5 -0 1 4 4 4 5 6 7 7 6 5 3 4 4 5 5 7 7 5
8 8 7 4 0 3 5 5 6 5 6 5 3 2 -4 -5 1 2 3 3 3 2 -1 -3 -2 2 3 2 1 2 3 3 3 3 3 4 5 7 5 4 4 6 7 4 4 6 7
7 7 8 7 4 1 5 4 5 5 5 5 5 2 1 -5 2 2 3 2 0 3 2 1 -3 1 3 1 -1 2 2 2 2 3 2 2 2 3 4 5 5 6 7 8 5 5 6
4 6 7 8 7 4 2 4 5 5 5 5 5 3 4 2 -2 3 2 2 0 1 5 4 0 -1 3 1 2 1 2 1 1 1 1 1 1 3 4 6 7 7 8 8 7 5 6
3 4 5 6 7 6 2 3 6 5 5 6 5 5 2 5 0 2 3 2 1 4 3 5 2 4 3 1 1 1 2 2 2 1 2 2 1 4 5 6 7 5 8 7 8 5 5
3 2 3 5 6 7 5 3 4 5 5 5 6 6 0 5 4 0 4 3 3 4 5 4 3 1 1 2 1 2 2 3 3 2 3 2 4 5 5 5 4 5 6 7 6 5 6
2 2 2 3 4 6 6 3 5 4 4 5 6 5 2 4 3 -1 3 4 4 4 4 4 4 4 2 1 2 1 2 2 2 4 2 3 5 2 2 4 6 5 6 7 5 5 6
1 2 2 2 3 4 6 5 4 4 4 5 6 6 4 3 1 1 2 3 3 4 4 4 3 5 4 3 3 2 2 2 2 3 3 4 2 1 2 3 5 5 6 6 6 5 6
1 1 2 2 1 1 4 5 5 5 5 5 6 6 5 3 0 1 3 2 3 4 5 4 4 4 4 4 3 3 2 2 2 3 3 3 1 1 3 4 3 5 2 3 4 7 9
0 1 1 1 1 1 2 4 5 5 5 5 6 6 6 0 0 1 1 3 5 5 5 2 4 3 4 4 3 3 2 3 4 2 3 3 2 2 2 2 2 3 2 3 4 6 7
0 -0 -1 0 1 2 2 3 3 5 5 5 6 6 6 1 4 4 4 3 4 4 4 5 3 3 3 4 3 3 3 3 4 5 4 2 0 1 1 -0 1 2 3 3 6 7 9
-0 -0 -0 -1 1 1 2 1 3 4 5 6 6 6 6 3 3 5 3 3 4 5 1 5 4 3 3 4 4 3 4 5 5 5 5 4 4 2 3 5 3 4 5 5 7 8 8
-0 -1 0 -1 0 0 3 2 4 4 5 6 6 6 6 5 2 1 3 4 5 2 3 4 3 2 5 3 4 4 5 5 4 4 4 4 3 3 2 3 4 5 4 5 6 7 7
-2 -1 -0 -0 0 1 2 2 4 3 5 6 6 6 6 4 4 3 3 4 3 2 4 5 5 6 5 4 3 3 3 5 3 3 3 4 4 3 1 1 1 5 5 2 8 8 9
-2 -1 -0 -1 0 2 1 2 3 2 5 5 6 6 6 6 4 4 4 5 3 4 4 4 6 5 5 4 4 5 4 2 3 1 0 3 5 1 2 4 2 4 3 6 7 10 11
-2 -2 -1 -1 0 1 2 2 4 5 5 6 6 6 6 6 4 4 4 5 3 3 4 5 5 6 5 4 3 3 2 0 0 1 0 3 5 4 3 6 5 6 7 6 7 7 9
-3 -2 -1 -1 -0 1 1 1 3 5 5 6 6 6 6 6 5 4 5 3 3 4 4 4 4 5 6 4 4 3 1 0 -1 -1 3 3 5 6 5 6 4 4 6 5 7 10 8
-3 -3 -2 -1 -0 0 2 1 2 5 5 6 5 5 5 6 5 5 4 4 3 4 4 5 5 4 3 4 5 3 1 1 1 2 4 4 5 6 8 7 6 7 7 8 7 9 8
-3 -3 -2 -1 -1 1 0 1 2 4 5 6 4 6 5 5 5 5 5 4 5 3 4 4 4 3 4 4 2 3 2 1 1 1 3 3 6 7 9 9 8 8 7 7 8 10 7
-3 -4 -2 -1 -1 0 0 1 1 5 6 6 4 5 4 5 5 5 4 4 5 4 4 4 5 4 4 3 1 2 3 1 1 2 4 5 7 7 6 7 8 8 8 7 9 8 8
-3 -4 -2 -1 -1 -0 0 1 1 4 5 6 5 5 4 4 4 5 5 5 5 4 5 5 5 3 4 4 2 3 3 2 4 4 4 4 6 7 7 7 7 9 8 7 7 5 5
-3 -4 -3 -1 -1 -1 -0 0 2 3 5 5 5 4 4 5 4 5 5 5 5 4 4 4 4 4 4 4 2 2 3 0 3 4 3 4 6 9 6 7 8 9 7 7 6 5 5
-3 -4 -3 -2 -1 -1 -1 0 1 3 5 5 4 4 4 6 5 5 5 5 5 5 5 4 4 5 4 4 3 4 4 4 6 6 2 4 6 7 6 3 6 1 2 5 6 4 4
-3 -4 -4 -2 -1 -1 -1 -0 1 3 4 5 5 5 5 6 5 4 3 5 6 5 6 5 5 4 5 6 6 7 8 7 6 5 4 3 5 8 7 7 4 2 -0 1 3 3 1
-3 -3 -4 -2 -1 -1 -1 -0 1 2 4 4 5 5 4 5 5 3 1 4 5 6 5 5 5 3 5 6 7 7 7 7 8 7 4 5 5 7 7 6 6 1 -1 -2 -1 4 1
-3 -3 -4 -2 -2 -1 -1 -1 1 3 4 5 5 5 6 5 4 4 3 4 4 5 5 4 4 3 5 7 8 8 8 6 9 9 6 7 7 7 8 8 6 2 -1 -1 2 2 1
-3 -3 -4 -3 -2 -1 -1 -1 1 3 5 5 5 5 5 5 4 4 3 1 5 5 5 4 5 5 7 7 8 8 8 7 6 6 6 7 8 9 8 9 7 -1 -1 0 1 0 2
-3 -4 -4 -2 -2 -1 -2 -1 1 2 5 5 5 5 5 5 5 5 4 4 3 3 4 5 5 5 6 7 6 7 7 4 6 8 5 7 6 7 6 6 2 1 1 1 1 1 2

GFSGBSN_850_dewp_024.txt.gz
Dewpoint
7 8 8 7 6 0 3 5 5 6 5 6 5 3 2 -5 1 0 -2 -0 -1 -2 -2 -2 2 2 0 6 5 3 4 4 3 5 8 8 6 7 5 5 6 6 7 7 8 8 7
5 7 7 7 7 6 1 4 5 5 6 5 5 4 3 -3 -3 1 1 2 2 1 -2 -2 -1 3 3 5 -1 2 4 4 3 5 6 7 6 6 6 5 4 4 5 5 6 6 7
3 4 6 6 7 8 5 1 5 5 6 5 5 6 3 0 -5 1 2 3 3 2 1 -2 -1 0 4 1 0 -0 2 3 4 4 3 6 5 7 6 5 4 5 6 6 5 4 6
3 2 3 4 6 6 7 6 1 4 5 5 5 5 4 2 -5 1 3 4 0 2 3 2 -1 -1 1 -1 -1 2 3 3 3 3 3 3 3 2 3 5 4 6 6 7 4 4 4
2 2 3 3 4 5 6 7 5 3 4 5 4 5 5 2 -2 1 3 2 1 1 2 5 2 -1 -0 -1 -0 -1 2 2 2 2 2 2 2 2 4 6 6 6 7 7 7 4 5
2 2 2 2 2 3 5 5 7 3 4 5 4 5 5 3 4 -2 3 3 2 1 3 5 3 4 2 0 -0 0 1 2 2 2 1 1 1 4 5 6 7 5 6 6 6 5 5
1 1 1 2 2 2 3 5 7 6 4 5 5 5 6 3 5 1 3 4 3 4 4 5 4 2 1 1 1 1 1 2 2 3 3 2 4 4 3 4 4 4 4 6 5 4 6
-0 0 1 1 2 2 1 3 4 6 4 5 4 5 6 5 4 5 2 4 3 3 4 4 4 4 2 2 3 1 2 3 3 4 3 4 5 2 1 3 5 5 6 5 4 2 4
-3 -0 0 1 1 2 1 1 2 4 5 5 4 4 6 5 4 5 0 4 2 3 4 4 3 5 5 4 4 2 2 3 3 4 3 4 1 1 2 3 5 6 6 5 5 4 2
-1 -4 0 0 1 0 -0 1 -1 2 6 5 5 5 6 5 5 3 3 2 3 3 4 3 4 3 4 4 4 3 2 2 3 4 2 3 1 2 3 3 4 5 3 4 5 5 6
-2 -2 -0 0 0 -0 -1 0 0 1 5 5 5 6 6 5 3 1 -1 2 3 4 1 1 3 3 4 4 3 3 3 2 5 3 3 4 3 3 3 3 2 4 1 2 4 5 5
-1 -2 -1 -0 0 1 0 1 1 1 2 3 5 6 6 5 1 -1 0 2 4 0 2 4 3 3 4 4 3 4 3 3 5 4 3 2 1 1 1 -0 1 2 3 3 3 5 7
-2 -2 -1 -1 -0 1 -0 0 1 1 1 4 5 6 6 5 1 1 4 4 3 1 0 5 4 3 3 4 3 3 4 5 6 6 5 5 5 2 2 2 1 2 4 5 6 6 4
-2 -2 -2 -1 -1 -0 -1 1 1 2 3 2 4 6 6 6 3 3 3 2 2 0 3 3 2 3 4 2 3 4 4 5 4 5 5 5 5 4 3 2 3 4 3 4 4 5 1
-2 -3 -2 -2 -1 -0 -0 1 2 2 3 2 4 6 6 5 4 4 3 4 1 2 3 3 3 4 4 4 3 4 4 4 2 4 5 5 4 2 1 1 1 4 5 1 3 4 7
-2 -2 -2 -2 -1 -0 -0 1 2 2 2 2 5 6 5 5 3 3 3 5 2 3 3 3 5 5 5 4 5 4 3 1 2 2 1 1 3 2 2 2 2 3 2 5 5 5 5
-2 -3 -2 -2 -2 -1 -0 1 2 1 3 2 4 5 6 5 4 3 4 5 3 3 3 4 5 6 5 4 3 3 3 1 1 2 2 2 2 4 3 5 3 5 5 5 2 4 7
-2 -2 -3 -3 -3 -2 -0 0 2 2 3 3 6 4 5 5 4 3 4 3 2 3 4 4 4 5 6 5 4 3 3 0 -0 1 3 1 5 4 2 1 2 5 4 4 4 3 8
-3 -2 -2 -3 -4 -1 -0 1 1 2 3 5 5 5 5 5 4 4 4 3 3 4 4 4 5 4 4 5 6 3 2 -0 -0 1 3 4 5 6 5 5 4 6 4 5 4 5 4
-3 -3 -3 -3 -3 -1 -0 0 1 1 3 4 4 4 4 5 4 4 4 5 5 3 4 4 4 4 4 4 3 4 2 1 1 1 3 4 6 5 7 8 7 6 5 4 6 7 4
-3 -3 -3 -3 -2 -1 -0 0 0 1 4 5 4 4 4 4 5 4 4 5 5 5 3 4 4 4 4 4 4 4 3 2 3 2 4 4 7 6 6 5 6 7 6 6 6 6 7
-3 -3 -3 -3 -2 -1 -1 -0 0 1 3 5 5 5 4 4 4 5 5 5 5 4 4 5 5 4 4 5 2 2 2 2 4 4 5 4 6 5 6 6 7 8 8 7 6 5 6
-3 -3 -3 -3 -2 -1 -1 -1 -0 1 3 5 4 4 3 4 4 5 5 5 5 4 4 4 4 5 4 4 2 2 2 1 2 4 4 5 6 7 9 8 8 10 9 6 5 6 6
-3 -3 -3 -3 -3 -1 -1 -1 -0 1 2 3 5 4 4 6 5 5 5 5 5 4 4 4 4 5 3 3 4 5 4 5 4 3 3 4 5 7 8 8 7 2 2 6 7 5 4
-3 -3 -3 -3 -3 -1 -1 -1 -0 1 3 4 5 3 4 6 5 5 5 4 4 4 5 5 4 4 3 5 6 6 7 7 6 5 6 3 5 7 9 8 4 1 0 3 6 5 1
-3 -3 -3 -3 -4 -2 -1 -1 -0 1 3 3 5 4 4 5 5 4 3 4 5 5 5 5 5 4 5 7 7 8 7 6 7 7 4 4 5 7 6 7 7 2 -1 -2 -1 4 1
-3 -4 -3 -3 -4 -2 -1 -1 -1 1 2 4 5 5 5 4 4 4 4 4 4 5 5 4 5 4 6 7 8 8 7 5 7 8 7 7 7 7 6 8 5 2 -1 -1 3 1 0
-3 -4 -3 -4 -4 -2 -2 -1 -1 1 2 3 5 4 5 5 4 4 4 3 5 4 5 4 6 5 6 7 7 8 7 7 6 5 6 7 8 8 7 8 6 0 -1 -0 -1 2 2
-3 -4 -4 -4 -4 -2 -2 -1 -1 0 2 4 5 5 5 5 5 5 4 4 3 3 4 5 5 5 6 7 6 6 7 5 5 7 4 7 6 7 6 5 2 1 1 1 1 1 1

GFSGBSN_850_dewp_027.txt.gz
Dewpoint
3 3 5 6 7 7 8 6 2 5 5 5 6 5 5 3 -3 1 -0 -1 -0 -1 -2 -2 -1 -1 1 6 6 3 4 3 4 7 8 9 7 6 5 5 6 6 6 6 6 7 8
3 3 4 4 5 6 7 7 5 2 4 4 5 5 5 4 3 -3 2 0 2 1 -1 -2 -2 3 3 4 -3 3 4 4 5 5 8 8 8 6 6 5 4 4 4 5 4 5 6
2 2 3 3 3 3 5 6 7 5 3 4 4 5 5 5 3 -3 2 2 3 3 1 -2 -2 0 4 0 -0 -1 3 4 5 5 6 7 8 7 7 6 5 5 6 5 5 4 4
2 2 2 2 2 3 3 5 6 7 6 3 5 5 4 5 3 -2 1 3 4 2 3 1 -1 -1 -0 -2 -0 1 2 3 3 4 4 4 6 5 2 4 4 6 5 7 3 4 4
-0 1 1 1 1 2 2 2 4 5 7 4 4 4 4 6 4 -1 1 4 4 0 1 4 3 1 0 -1 -2 -1 2 2 3 3 3 3 3 2 3 6 6 6 7 6 5 4 4
-2 -1 -0 1 1 1 1 2 2 4 6 7 4 4 4 5 4 1 2 4 3 1 3 5 4 3 2 0 -0 -0 -0 1 2 2 1 1 1 4 5 6 6 5 7 5 6 4 4
-1 -1 -1 -1 0 1 1 2 1 -1 4 6 4 4 5 5 5 3 3 5 3 3 3 5 4 3 1 2 1 1 0 1 2 3 3 2 3 4 4 4 4 5 5 5 5 3 4
-1 -1 -0 -1 -0 0 1 1 2 -1 -1 4 6 5 5 5 6 5 0 4 3 3 4 3 5 4 2 2 3 2 2 2 3 4 3 4 4 2 1 1 3 5 6 5 4 3 3
-1 -1 -0 -1 -0 0 1 1 1 -1 0 0 5 5 6 6 6 6 4 2 3 3 3 2 3 5 5 3 4 3 2 2 3 4 4 4 1 1 2 3 4 4 5 3 4 2 2
-2 -2 -2 -2 -2 -0 -1 -0 -1 -0 -0 1 4 5 5 5 6 6 5 4 2 3 2 2 4 4 4 4 4 3 2 2 2 4 3 4 2 2 2 3 3 4 3 4 5 5 5
-1 -1 -2 -1 -1 -1 -2 0 0 1 2 1 1 5 5 6 5 5 4 3 2 3 -1 1 4 4 4 4 3 3 3 2 4 4 3 4 4 3 3 3 2 3 2 4 4 4 4
-2 -2 -2 -2 -1 -1 -0 1 1 1 -1 1 1 3 4 6 5 5 3 1 3 2 1 4 3 3 4 4 4 3 3 3 4 4 3 2 2 2 2 1 1 1 3 3 4 5 6
-1 -1 -2 -2 -1 -1 0 -0 -0 -0 -1 -1 0 3 5 5 4 3 1 3 4 2 -0 4 3 3 1 3 3 4 4 5 6 5 5 5 5 3 2 3 1 2 5 5 6 6 4
-2 -1 -2 -2 -2 -1 -0 -1 0 1 -1 0 2 3 4 4 4 1 2 2 3 0 3 2 2 3 3 3 3 3 4 4 4 5 5 5 6 4 3 2 3 4 4 5 5 4 2
-1 -1 -2 -2 -2 -2 -1 -1 0 2 1 2 2 3 4 5 4 2 2 4 0 0 2 2 2 3 4 2 3 4 4 3 3 2 5 5 3 3 3 2 3 5 5 2 4 1 5
-2 -2 -2 -2 -2 -2 -1 -1 1 1 2 2 3 3 3 4 3 4 3 2 1 2 2 2 4 3 3 3 4 4 3 1 2 1 1 2 3 2 2 2 3 4 1 5 5 5 4
-2 -2 -2 -2 -2 -2 -1 -1 0 1 2 2 2 3 4 4 4 4 4 4 2 3 2 4 4 6 4 4 4 3 2 1 0 1 1 2 2 2 3 4 4 5 5 4 3 3 2
-2 -2 -3 -2 -3 -2 -0 -1 0 1 1 2 3 3 4 5 4 3 4 3 2 4 3 4 3 4 5 4 5 3 3 1 -0 1 4 2 3 4 2 2 0 1 2 3 4 3 2
-2 -2 -2 -2 -3 -3 -1 -1 0 1 1 3 2 3 4 4 3 3 4 3 3 4 4 4 5 4 3 5 6 3 2 -0 0 1 3 3 5 5 5 4 3 5 4 4 3 3 3
-3 -3 -3 -3 -3 -3 -1 -1 -1 0 2 3 2 3 4 3 3 2 4 4 4 3 4 4 4 4 5 5 5 4 3 1 -0 0 2 2 5 5 5 5 5 6 5 5 5 6 4
-3 -3 -3 -3 -2 -2 -1 -1 -1 0 2 4 4 3 2 4 4 3 3 4 4 5 3 4 4 5 5 6 3 4 3 3 2 2 4 4 6 6 5 4 4 6 6 5 5 4 6
-4 -3 -3 -3 -3 -3 -1 -1 -0 0 3 4 4 5 3 3 4 4 3 5 5 3 4 4 5 4 4 6 2 3 3 2 3 4 5 4 6 4 5 4 5 7 6 5 4 4 5
-3 -3 -3 -3 -2 -3 -1 -1 -1 0 1 3 3 5 3 4 4 5 5 5 5 4 4 3 4 5 5 4 3 2 2 2 2 4 5 5 5 6 6 8 7 8 6 7 6 5 5
-3 -4 -3 -3 -3 -3 -1 -1 -1 1 1 2 4 5 4 5 4 5 4 4 4 4 4 4 4 5 3 3 2 3 3 3 4 4 3 6 5 6 8 8 10 7 6 6 6 5 4
-3 -3 -4 -3 -3 -3 -2 -1 -1 0 1 3 4 5 4 6 4 4 4 5 5 5 5 4 5 4 3 4 6 6 6 6 6 5 4 4 5 8 9 8 5 1 4 6 7 7 4
-3 -4 -4 -4 -3 -4 -2 -1 -1 -0 1 3 3 5 4 4 5 4 4 4 6 5 5 4 4 5 4 5 6 7 8 7 6 7 4 5 5 7 7 8 7 2 -0 -2 3 4 1
-3 -4 -5 -4 -3 -4 -2 -2 -1 -0 1 2 3 5 4 4 4 4 4 5 4 4 5 4 4 3 5 6 7 7 6 4 7 7 7 7 7 8 7 8 5 2 1 -1 3 1 0
-3 -4 -3 -4 -3 -4 -3 -2 -1 -1 1 2 4 4 5 4 4 4 4 4 5 4 5 4 5 5 6 7 7 7 6 5 6 4 6 7 7 7 6 7 5 0 -1 0 -1 1 1
-2 -4 -4 -4 -4 -4 -3 -1 -2 -1 1 2 4 5 5 5 5 4 4 4 4 4 4 4 5 5 6 6 6 6 7 5 5 6 4 6 5 6 5 4 1 1 1 1 1 1 1

GFSGBSN_850_dewp_030.txt.gz
Dewpoint
2 3 3 3 3 4 5 5 6 7 4 5 4 5 6 5 5 3 -2 -0 -1 -1 -1 -2 0 1 2 7 6 4 4 3 5 7 9 9 7 5 5 5 6 7 6 6 6 5 6
1 2 2 3 3 3 3 3 4 6 7 4 5 4 5 5 5 4 -1 1 0 1 -0 -1 -0 3 3 3 -3 2 4 4 5 9 9 9 8 6 6 5 4 4 4 4 4 4 4
0 0 -0 1 2 2 2 3 3 3 5 6 5 4 4 5 5 4 2 1 2 3 2 -1 -1 1 4 -0 -1 -0 4 4 5 6 7 8 8 7 7 6 5 5 6 4 4 4 4
1 0 0 0 -0 1 1 1 2 2 4 5 6 5 4 5 5 4 2 0 3 4 3 2 0 -0 -1 -2 -2 -0 0 4 4 5 4 4 5 7 5 3 4 6 5 7 3 4 4
0 -0 0 1 1 -1 1 0 0 1 1 3 5 6 5 6 5 5 2 -0 4 3 1 4 3 2 1 0 -2 -2 0 2 3 3 3 3 3 2 3 5 5 6 6 6 5 3 4
-0 -1 -0 0 -0 -1 -0 0 1 -0 1 1 4 5 5 5 6 6 1 1 5 3 1 3 5 3 2 1 -0 -0 -0 2 2 2 2 2 2 4 4 5 6 4 5 3 4 4 3
-2 -1 -1 -1 -1 -1 0 1 0 0 -0 1 0 2 5 5 6 6 2 5 4 3 2 4 5 3 1 2 1 1 1 1 2 2 3 2 3 5 5 4 3 4 5 6 4 3 3
-0 -0 -1 -1 -1 -1 0 1 0 1 -0 0 1 0 4 5 6 6 0 5 3 2 3 1 4 4 3 3 2 2 1 2 3 4 2 3 4 2 1 2 3 4 5 4 3 2 3
-1 0 -0 -1 -1 -1 0 -1 -1 0 1 1 0 -0 2 4 6 6 3 3 3 2 2 2 2 4 4 3 4 2 2 2 3 3 4 3 1 1 2 2 3 3 4 3 3 1 1
0 -1 -0 -1 -2 -2 -2 -1 -1 0 0 0 -0 -1 1 5 6 6 4 4 3 1 -1 1 4 4 4 4 3 3 2 2 3 4 3 4 2 2 2 3 3 4 2 3 3 4 4
-1 -1 -0 -1 -2 -1 -2 -0 0 0 -0 -0 -0 -3 -1 4 6 6 4 4 2 1 2 1 4 4 4 2 3 4 3 2 3 3 3 3 3 4 4 2 2 3 2 3 4 5 5
-1 -1 -1 -1 -2 -2 -1 -0 -0 -1 -0 1 -2 -4 -0 2 5 5 4 4 2 -0 3 4 3 4 4 4 3 3 3 3 4 3 3 2 2 2 2 1 1 1 3 3 5 5 6
-1 -1 -1 -3 -1 -1 -1 -1 -1 -0 1 2 -0 -3 -1 3 5 5 5 3 3 4 0 3 3 2 3 4 3 3 4 5 6 6 5 4 5 3 2 3 2 3 6 6 6 6 4
-0 -1 -1 -2 -2 -1 -2 -1 0 -0 1 1 1 0 -0 1 5 5 2 2 2 0 3 2 2 2 2 1 2 3 4 5 4 4 6 5 3 4 3 2 3 3 4 5 5 4 2
-1 -1 -2 -2 -2 -1 -3 -0 0 0 1 2 2 2 1 2 4 4 3 3 1 0 2 3 3 2 3 3 2 4 4 3 1 3 5 5 3 2 3 2 1 5 5 2 5 5 5
-1 -2 -2 -2 -2 -2 -3 -0 0 1 1 2 2 2 2 3 3 3 3 2 1 -0 1 1 3 2 3 3 4 4 3 1 2 2 1 3 4 1 2 3 2 3 3 5 5 5 5
-1 -2 -2 -2 -2 -2 -2 -1 1 0 0 2 2 2 3 3 2 3 4 3 1 3 1 2 3 3 3 3 3 3 2 1 1 1 0 2 3 2 3 4 3 5 5 5 4 4 2
-1 -2 -3 -3 -2 -2 -3 -1 -0 -0 0 1 2 3 3 3 3 3 4 3 2 3 3 3 2 4 4 3 4 4 2 1 -0 1 3 1 4 4 2 1 1 2 3 3 3 3 3
-2 -2 -4 -4 -2 -2 -3 -1 -1 0 0 1 2 3 4 1 3 3 3 3 3 4 4 4 4 3 3 4 6 4 2 0 0 2 3 2 5 4 4 3 1 5 4 2 2 1 3
-2 -4 -3 -3 -3 -2 -3 -1 -1 -0 1 2 2 4 3 3 3 3 3 4 4 3 4 3 4 3 4 5 5 5 4 1 1 1 1 1 5 4 4 3 5 6 4 5 5 5 3
-3 -3 -3 -3 -3 -2 -3 -1 -0 -1 1 3 2 2 2 3 3 2 2 3 4 5 3 4 4 3 5 6 5 6 4 3 1 1 3 3 6 5 5 4 4 5 6 5 5 4 5
-3 -4 -4 -4 -3 -3 -3 -2 -0 -0 2 3 3 4 3 2 3 2 3 4 5 3 4 4 5 4 4 6 3 3 2 3 3 3 4 4 6 5 5 4 5 5 5 6 5 5 5
-3 -4 -4 -5 -3 -3 -3 -2 -1 0 1 1 2 4 3 3 3 4 4 4 4 3 4 3 3 4 5 4 4 3 1 2 2 4 5 5 5 6 6 5 6 8 6 6 6 5 5
-2 -4 -4 -5 -4 -3 -3 -1 -1 -0 1 2 3 4 4 5 4 3 4 4 4 3 4 4 4 5 4 4 3 3 3 3 3 3 3 5 6 5 7 7 9 7 7 6 6 5 3
-2 -2 -4 -5 -5 -3 -3 -2 -1 -0 1 2 3 4 5 5 4 4 4 4 4 4 5 4 4 4 4 4 5 6 6 6 5 5 5 4 6 7 9 8 7 5 7 5 6 6 4
-4 -3 -5 -4 -3 -3 -3 -2 -1 -0 1 2 3 4 5 4 4 3 4 4 5 5 5 5 5 5 5 5 6 5 7 7 7 6 4 4 4 7 7 8 9 3 1 3 4 5 3
-4 -2 -4 -5 -3 -4 -3 -3 -1 -1 0 1 3 4 5 4 4 4 4 5 4 4 4 4 4 4 5 6 6 7 6 5 6 5 7 7 7 8 7 8 5 2 1 0 3 2 0
-2 -4 -4 -5 -4 -4 -4 -4 -2 -1 -0 1 3 3 5 4 4 4 4 4 4 4 4 4 4 5 6 6 6 7 7 5 5 4 6 6 7 7 6 7 4 0 -0 1 -1 1 1
-4 -5 -4 -5 -5 -4 -4 -4 -1 -1 -1 1 2 4 5 4 5 4 4 4 4 4 4 4 5 5 5 5 6 6 7 5 4 6 3 6 4 5 5 4 1 1 1 1 1 1 1

GFSGBSN_850_dewp_033.txt.gz
Dewpoint
1 1 1 1 1 1 2 2 3 3 3 6 6 4 5 5 6 5 4 -1 0 -1 -1 -1 -0 0 -1 6 7 4 5 4 5 9 8 8 7 5 5 5 6 7 6 6 6 5 5
1 1 1 1 2 2 1 2 2 2 2 2 5 6 5 5 6 6 4 4 -0 -1 0 -1 -0 3 1 2 -0 4 4 4 5 8 8 8 7 6 5 5 4 4 4 4 4 4 4
0 1 1 0 1 0 1 1 2 2 2 2 3 5 6 5 5 6 4 4 -2 1 2 1 -1 1 2 -1 -1 -1 3 4 5 8 8 8 7 6 6 6 5 5 6 4 4 4 4
-0 -0 -0 -1 -0 0 -1 -0 1 1 1 2 2 3 5 6 5 6 6 4 -2 3 3 2 2 0 -0 -1 -2 -1 1 4 5 7 6 5 6 7 6 4 4 5 5 6 3 3 4
-0 -1 0 -0 0 -0 -0 -1 0 0 -0 1 1 -0 3 5 5 6 6 3 -1 4 3 3 4 2 2 1 -1 -1 0 2 4 5 4 3 5 4 4 5 5 5 6 6 4 2 4
0 1 -1 1 -1 -0 -0 -0 -0 1 0 0 -0 -1 0 4 5 6 6 3 3 5 1 2 4 4 3 1 -0 -0 -1 2 2 3 3 3 2 4 4 5 5 5 6 4 3 2 3
1 0 -0 0 -0 -1 -1 -2 -0 -0 -2 -1 0 -0 -1 1 4 6 6 5 4 3 2 2 4 3 2 2 1 2 0 2 2 2 3 2 4 5 4 4 3 4 5 5 4 2 3
-0 -1 -1 0 1 -1 -1 -1 -1 -0 -2 -1 0 0 0 -0 3 5 6 4 2 -0 2 1 4 4 3 2 2 2 1 2 2 3 2 3 4 2 2 3 4 4 5 3 1 0 2
-1 -0 1 -0 -1 -1 -1 -1 -1 -1 -1 -0 0 0 0 -1 3 3 5 3 2 1 1 1 1 3 4 2 3 3 2 2 2 3 3 3 1 1 2 2 3 3 4 4 3 1 0
-0 -0 -1 -0 -1 -1 -1 -2 -1 -2 -0 0 1 -0 1 1 1 4 5 3 2 2 -1 0 3 3 4 4 3 3 2 1 2 4 3 4 2 2 3 3 2 4 2 2 3 3 4
-1 -0 -1 -1 -1 -1 -1 -1 -1 -0 -1 -1 -1 -0 -1 2 2 5 4 3 3 -0 -0 0 4 4 4 3 2 4 3 2 3 3 3 2 3 4 3 2 2 3 1 2 3 4 4
-0 0 -0 -1 -1 -1 -2 -1 -1 -0 -1 0 1 -0 -1 1 -0 2 5 3 2 2 1 4 3 4 5 3 3 3 3 2 3 3 3 2 1 2 2 1 1 1 2 3 4 4 6
-0 -0 -0 -1 -1 -1 -2 -2 -2 0 1 1 2 1 0 -1 1 2 4 4 3 2 0 4 3 4 3 3 3 3 4 4 5 5 5 4 4 2 1 3 2 2 6 5 6 6 5
-1 -1 -1 -2 -1 -2 -2 -2 -1 0 0 1 2 2 -0 1 0 3 4 3 3 1 2 1 2 2 3 2 2 3 4 5 3 4 5 5 3 4 3 3 3 4 4 5 5 4 2
-1 -1 -1 -1 -2 -2 -2 -2 -1 -0 0 0 2 2 1 1 1 4 3 4 1 1 2 3 2 3 3 2 2 3 4 3 2 4 5 5 3 2 2 2 1 5 5 2 4 3 6
-1 -2 -1 -2 -2 -2 -2 -3 -1 -1 0 0 2 2 2 1 1 3 3 4 -0 0 1 1 3 2 3 3 4 4 4 1 2 2 1 2 3 0 2 2 2 4 2 5 5 5 5
-2 -2 -2 -2 -2 -2 -2 -2 -1 -0 -0 1 1 2 2 2 2 2 4 3 2 1 0 1 3 3 2 3 3 4 2 1 1 1 2 2 3 1 3 4 3 4 4 5 4 5 4
-3 -2 -2 -3 -4 -3 -2 -2 -2 -1 -0 1 2 2 2 3 1 0 4 2 3 3 2 3 2 3 3 2 3 3 3 1 -0 1 3 2 3 4 2 0 0 1 3 3 5 4 4
-3 -2 -3 -4 -4 -4 -2 -3 -3 -1 0 1 2 3 2 2 3 3 3 3 3 3 3 3 3 3 3 3 4 3 2 0 0 1 2 1 4 4 1 2 1 3 2 2 4 4 5
-3 -2 -4 -4 -3 -4 -2 -3 -2 -1 1 3 2 3 2 2 3 3 3 4 4 3 3 3 3 3 3 4 3 4 4 2 0 1 1 1 3 3 3 1 4 5 4 3 5 5 3
-3 -3 -3 -4 -4 -4 -2 -3 -1 -0 2 2 2 3 2 2 3 2 2 3 4 4 3 3 4 3 3 5 4 4 3 2 2 1 2 3 6 4 3 3 3 5 5 5 5 4 5
-2 -3 -3 -4 -4 -3 -3 -3 -1 -0 1 2 3 4 2 2 3 2 2 3 3 4 3 4 4 3 3 4 4 4 3 3 2 2 3 3 6 5 5 4 4 6 5 5 5 5 5
-3 -2 -2 -3 -3 -3 -3 -3 -1 -0 0 1 2 3 3 2 3 4 3 2 3 3 3 2 3 3 4 4 3 3 2 1 2 3 4 5 5 6 6 4 6 8 7 7 6 5 4
-2 -4 -3 -4 -4 -2 -2 -3 -1 -1 0 1 2 3 4 4 4 3 3 3 4 3 4 4 3 4 4 4 4 4 4 3 3 3 2 5 5 5 6 7 9 8 6 5 6 5 4
-2 -2 -2 -3 -5 -4 -3 -4 -2 -1 0 1 2 2 4 4 3 3 3 3 4 3 3 3 4 4 4 4 5 5 5 5 5 3 3 3 5 7 8 8 5 3 3 5 7 6 4
-2 -2 -3 -4 -5 -5 -4 -7 -8 -1 0 1 3 4 4 4 4 3 4 4 5 5 5 5 4 4 5 5 5 6 6 4 6 6 4 4 4 7 6 8 8 4 2 2 3 5 4
-4 -3 -3 -4 -5 -5 -4 -6 -9 -2 -0 1 3 4 4 4 4 4 4 5 4 4 5 4 4 4 5 5 6 6 6 4 6 4 7 7 6 7 7 8 5 2 1 2 3 4 2
-3 -4 -4 -5 -6 -5 -4 -9 -6 -2 -0 0 3 4 4 5 4 4 4 4 4 4 5 4 4 4 5 6 5 6 6 5 5 3 5 6 7 8 7 7 6 1 1 2 0 1 1
-5 -5 -5 -5 -5 -5 -4 -11 -6 -2 -1 -0 2 3 5 4 5 4 4 4 4 3 3 3 4 4 5 5 4 6 6 5 4 5 3 5 4 5 4 4 1 2 1 1 1 1 1

GFSGBSN_850_dewp_036.txt.gz
Dewpoint
1 1 1 1 1 1 1 1 1 2 2 2 3 3 6 6 5 6 6 4 4 -2 -1 -1 -1 -1 2 6 5 4 4 4 4 8 9 8 6 5 4 3 5 4 3 3 4 5 4
1 1 0 1 1 0 0 0 0 1 2 1 2 3 4 5 5 5 7 4 4 -1 -1 -0 -1 1 2 2 2 5 4 3 6 8 9 8 7 5 4 4 4 4 4 4 4 4 3
0 1 1 1 1 1 0 1 0 0 0 1 1 1 2 4 6 5 6 5 4 -1 -0 1 -0 -0 2 1 -1 -1 4 4 5 8 8 8 7 6 6 5 5 4 5 3 2 2 2
1 1 -0 1 1 0 0 0 0 0 -0 1 0 1 -1 2 4 6 6 6 4 0 1 2 1 -0 1 -1 -1 -0 0 5 5 8 7 7 7 7 5 4 3 3 3 4 2 2 2
1 1 1 0 -0 -0 0 -1 -0 -1 0 1 0 0 -1 -1 2 5 6 7 4 0 3 3 3 2 3 1 -0 -1 1 4 5 5 4 6 6 5 4 5 5 3 4 4 3 1 2
2 1 1 0 1 0 0 -0 -0 -1 -1 -0 -2 -1 -0 -2 1 4 5 6 4 4 4 4 4 4 3 2 -0 -1 1 3 4 4 3 4 3 2 2 3 4 2 3 2 2 0 1
1 0 0 1 0 -0 -0 -0 -1 -0 -1 -1 -1 -1 -1 -0 -0 2 3 6 5 4 4 2 3 2 2 2 2 1 2 2 3 3 3 3 4 4 2 2 1 2 3 3 2 0 1
0 1 0 -0 -0 0 -1 -1 -1 -1 -1 -2 -0 -1 1 0 0 1 4 4 4 2 3 3 4 3 3 3 3 3 2 2 1 3 2 3 4 1 0 1 3 3 3 3 1 -1 0
0 0 1 0 0 -0 -1 -1 -1 -1 -0 -1 -1 -1 -1 1 1 1 3 2 3 -1 1 3 3 3 4 3 2 3 2 2 1 3 3 3 1 -0 2 2 3 3 3 2 2 -0 -1
1 -0 1 1 0 -1 -1 -1 -1 -0 -1 0 -1 -1 0 1 -0 -1 1 1 4 3 5 3 3 2 3 3 2 3 2 2 2 2 2 2 -0 1 2 2 2 3 -1 1 1 2 3
0 0 -1 -0 -0 -2 -1 -1 -1 -1 -0 0 -1 1 1 2 0 2 3 2 4 3 7 1 3 4 3 1 2 4 3 2 2 2 2 3 3 3 2 2 1 2 -0 1 1 2 2
-0 0 -0 -0 -1 -3 -2 -1 -1 -2 -1 0 1 1 2 2 -1 0 3 3 3 5 5 4 3 4 4 1 2 4 3 3 1 2 2 0 1 1 1 0 0 0 2 2 2 3 6
-0 -0 -1 -1 -2 -3 -1 -1 -1 -1 -0 -0 0 1 2 2 -0 -1 2 3 4 6 1 4 3 4 3 3 4 3 4 4 4 6 5 2 2 1 1 2 1 2 5 4 6 6 4
-3 -1 -2 -2 -3 -3 -2 -2 -1 -1 -0 -0 0 1 1 2 0 -0 3 3 6 2 2 1 2 3 4 2 3 3 4 5 2 2 4 5 5 3 2 2 2 3 3 4 4 0 -1
-1 -2 -2 -3 -4 -2 -2 -2 -2 -2 -1 0 1 1 1 -2 -1 2 2 5 4 1 1 2 2 3 3 2 2 3 3 3 2 2 5 5 4 0 1 1 1 4 5 1 4 3 4
-2 -3 -2 -2 -4 -4 -3 -3 -2 -1 -0 1 1 1 1 0 2 2 2 5 0 1 0 0 3 1 3 2 3 2 2 1 1 1 0 2 5 0 1 2 2 2 0 5 5 4 2
-3 -3 -2 -4 -4 -4 -4 -2 -2 -1 -0 1 1 1 2 1 2 1 4 4 2 0 -0 1 2 2 2 3 2 2 2 0 0 1 1 2 2 2 2 3 2 4 5 5 2 2 4
-3 -2 -3 -4 -4 -4 -4 -3 -2 -0 -0 1 1 3 2 2 2 1 4 3 1 2 2 2 1 1 1 2 2 2 2 1 -0 1 3 0 2 3 1 -2 -2 -2 1 1 5 3 4
-3 -2 -2 -3 -4 -4 -3 -5 -2 -1 0 2 2 2 2 1 3 4 3 4 3 2 2 2 3 2 1 2 3 1 2 0 0 1 1 1 4 4 1 3 0 3 1 0 3 4 6
-3 -3 -2 -2 -3 -2 -3 -5 -3 0 2 1 1 3 2 2 3 2 5 4 4 3 3 2 2 1 2 3 2 3 3 1 0 -0 0 0 2 2 2 2 3 6 4 3 5 6 4
-3 -2 -2 -2 -3 -2 -3 -8 -3 0 2 2 3 3 2 4 3 2 2 3 3 4 3 2 3 2 2 4 4 5 3 2 1 1 1 1 5 3 2 1 2 4 5 5 5 5 5
-2 -2 -2 -2 -4 -2 -2 -6 -4 0 1 2 2 4 3 2 2 3 2 3 3 3 3 4 3 3 2 3 3 4 2 2 3 2 2 2 5 6 5 3 4 6 6 6 6 6 5
-2 -2 -1 -3 -4 -3 -5 -4 -8 -1 0 1 1 2 3 3 2 2 2 2 2 2 2 1 2 2 3 2 2 2 3 2 1 2 3 4 5 5 7 4 5 8 8 7 7 6 5
-2 -2 -2 -2 -4 -6 -4 -4 -13 -2 0 1 1 2 3 4 2 2 1 1 2 2 3 3 2 2 3 3 4 4 4 4 3 2 2 4 5 6 7 6 9 6 4 5 6 5 4
-3 -4 -3 -4 -5 -6 -5 -4 -20 -4 0 1 2 2 3 3 2 2 2 2 2 3 3 3 3 3 4 4 5 5 5 5 4 3 3 2 4 7 7 7 5 4 3 3 6 7 5
-2 -2 -3 -3 -5 -6 -5 -5 -19 -3 -1 1 3 3 3 4 4 2 2 2 3 3 4 4 4 4 4 5 6 5 3 3 6 7 4 3 4 6 7 7 7 3 1 1 4 8 5
-3 -4 -4 -5 -6 -6 -4 -6 -20 -4 -1 0 3 2 3 5 3 4 2 3 3 4 5 5 5 5 4 5 5 5 4 4 6 6 7 7 6 6 7 7 5 1 2 2 3 4 2
-6 -4 -4 -5 -6 -5 -4 -8 -19 -5 -1 -0 2 2 3 4 4 4 4 4 4 4 5 4 4 4 5 6 6 4 4 4 5 3 5 5 6 8 8 7 7 1 2 4 2 2 1
-14 -14 -4 -6 -5 -6 -7 -11 -17 -10 -2 -2 1 2 4 4 5 4 4 4 3 3 4 4 4 4 4 5 5 4 5 5 4 5 3 5 4 5 4 4 2 2 2 2 1 1 1

GFSGBSN_850_dewp_039.txt.gz
Dewpoint
2 2 1 2 1 1 1 1 1 1 1 0 1 2 3 3 5 6 5 7 5 4 -1 -1 -1 -1 3 5 6 6 6 7 7 9 9 7 5 4 4 2 2 3 2 1 2 3 3
1 2 1 1 1 1 1 1 1 1 1 1 1 1 0 1 3 5 6 5 6 4 -0 -0 -1 -0 4 4 3 5 4 5 6 9 9 8 7 5 4 2 3 2 2 2 2 2 2
2 1 1 1 1 -0 1 0 0 1 1 1 1 1 1 0 -0 4 6 5 7 4 0 -0 0 2 4 1 1 2 4 6 8 7 8 8 7 5 5 5 4 4 4 3 2 2 2
2 3 0 1 1 1 0 1 -2 -1 -1 1 0 0 -1 1 -0 0 5 5 7 5 0 1 1 4 3 2 3 -2 4 5 7 8 8 8 7 6 6 4 3 3 3 5 0 1 0
2 2 1 1 1 1 1 1 0 -1 -0 -0 0 -0 -2 -1 -1 -1 3 5 6 5 0 2 3 4 2 1 0 1 2 4 5 6 7 8 7 6 6 5 4 3 4 3 1 -0 1
1 1 1 1 1 -0 0 1 0 -0 0 -0 -0 -2 -1 -2 -0 -1 1 4 5 5 4 5 5 4 3 2 2 1 2 4 4 4 5 5 4 4 4 5 6 3 3 2 1 -0 0
1 2 2 1 1 0 1 0 -0 0 -1 -1 -2 -2 -1 -2 -2 0 0 4 5 5 5 4 3 1 3 2 2 2 2 4 3 3 3 2 3 4 2 1 1 0 2 2 -0 -1 1
1 0 1 1 1 1 0 -1 -0 -1 -0 -0 -0 -1 -2 -1 -0 0 0 2 3 4 4 3 3 3 3 2 2 1 2 2 3 4 2 4 5 1 -1 -0 1 2 3 2 -0 -1 -1
1 1 -0 1 -1 -0 -1 -1 -1 -0 -0 -1 -0 0 0 -2 1 0 1 -1 2 4 4 3 3 3 3 3 1 2 2 1 1 2 2 4 1 -1 0 1 2 2 2 1 1 -1 -2
1 -0 0 0 -0 -0 -3 -3 -2 -2 -2 -1 -0 1 0 -1 0 1 1 -3 2 3 5 4 3 3 4 3 2 2 2 1 1 1 1 2 -1 -0 1 2 1 3 -1 -1 0 1 3
0 0 -1 -0 -1 -2 -3 -2 -2 -1 -1 -1 -0 -0 1 1 2 1 2 -2 2 3 8 3 2 2 3 1 2 3 1 2 1 0 1 3 2 2 2 1 -1 1 -0 0 1 2 2
-0 0 -1 -1 -2 -3 -3 -3 -1 -1 -1 -1 -0 -0 1 1 1 1 2 1 1 4 7 4 4 3 2 0 2 3 2 2 0 -0 1 1 -0 0 1 -0 -1 -0 1 1 1 3 6
-1 -0 -1 -2 -2 -3 -3 -3 -1 -1 -1 -1 -1 0 1 1 2 2 1 2 3 6 1 5 3 3 2 2 2 3 4 4 4 6 5 2 1 -0 -1 1 0 1 4 5 6 6 4
-1 -1 -2 -2 -4 -3 -3 -1 -1 -1 -1 -1 0 1 1 1 2 1 1 3 6 4 2 -0 2 3 3 2 2 2 3 4 1 1 3 4 6 1 1 2 2 2 3 4 4 -1 -1
-1 -2 -3 -3 -4 -3 -2 -1 -2 -2 -1 -1 1 0 1 1 2 0 1 4 6 1 1 2 3 5 4 1 2 3 3 3 1 1 5 4 4 -0 1 0 -0 2 5 1 3 1 3
-0 -3 -2 -3 -4 -3 -1 -1 -2 -2 -0 -0 1 1 2 2 2 1 3 5 1 -1 -0 1 3 1 3 3 3 2 3 0 1 -0 -1 3 5 -0 1 0 0 1 -0 4 5 5 3
-1 -3 -2 -2 -4 -3 -1 -1 -2 -2 -0 1 1 1 2 0 1 2 4 5 2 -1 -1 0 1 1 0 2 1 2 2 0 -1 -0 -1 1 2 2 1 3 2 3 4 3 1 3 4
-1 -3 -2 -2 -2 -2 -2 -2 -3 -0 0 2 1 2 2 2 3 2 4 4 -0 0 1 1 -1 -1 0 0 2 2 2 0 -1 -1 2 0 3 4 1 -2 -3 -1 1 1 5 3 3
-1 -3 -2 -2 -2 -2 -2 -2 -5 0 1 2 0 2 3 3 4 4 3 3 1 2 2 1 2 0 -0 1 3 1 1 -0 -1 -0 0 0 3 4 3 2 -1 1 0 -0 2 4 6
-1 -2 -2 -3 -3 -3 -2 -2 -5 1 2 1 1 3 2 3 3 3 5 4 3 3 2 1 1 0 1 1 1 1 1 1 -0 -1 1 -1 2 3 3 4 2 6 2 2 5 6 4
-1 -1 -1 -2 -2 -4 -2 -3 -8 0 2 2 3 3 2 3 2 1 2 2 3 2 2 1 2 1 1 3 3 3 1 2 1 1 0 1 4 2 1 1 1 3 4 4 6 6 6
-1 -1 -1 -2 -2 -6 -2 -8 -10 0 1 2 2 3 3 1 1 0 2 3 4 3 1 2 2 1 1 2 1 3 2 2 2 1 2 2 5 6 4 2 3 6 4 5 7 7 6
-3 -4 -3 -2 -2 -6 -7 -6 -17 -2 1 1 1 2 4 2 0 2 1 1 1 1 2 1 1 2 2 1 1 1 2 1 0 3 3 3 5 5 5 3 3 7 8 7 7 6 6
-2 -3 -2 -2 -3 -5 -9 -5 -18 -5 0 1 1 2 3 3 1 1 -0 0 1 1 3 2 1 1 3 3 3 3 3 3 3 2 2 3 4 5 7 4 9 5 2 3 5 6 5
-3 -3 -3 -2 -6 -6 -7 -5 -17 -9 -0 1 2 2 3 3 1 -0 0 0 1 2 2 2 2 3 4 4 5 4 5 4 4 3 2 1 3 7 6 5 3 3 2 3 5 7 5
-4 -4 -4 -4 -4 -4 -3 -6 -15 -15 -2 0 2 2 2 4 3 0 1 0 2 2 2 3 4 4 4 5 6 5 4 1 5 6 2 1 2 6 4 7 6 2 1 1 4 7 4
-8 -5 -4 -3 -5 -5 -4 -8 -15 -16 -3 -1 2 2 2 4 3 3 1 2 2 2 4 5 5 5 5 5 6 5 4 2 5 6 7 6 6 6 6 7 4 1 1 1 5 4 2
-18 -7 -7 -20 -12 -9 -11 -15 -17 -9 -4 -2 1 1 2 2 4 4 4 3 3 3 4 4 4 5 5 6 6 3 2 2 2 2 4 5 6 7 7 8 7 1 2 4 3 2 1
-17 -6 -8 -16 -8 -4 -5 -5 -3 -7 -10 -7 0 1 3 3 5 4 4 4 4 4 4 4 4 4 4 5 5 4 3 3 2 4 2 5 2 7 6 5 1 1 2 2 2 1 2

GFSGBSN_850_dewp_042.txt.gz
Dewpoint
2 2 2 3 2 1 1 1 1 1 1 1 1 1 2 2 2 2 4 6 6 7 5 -1 -1 -1 1 7 7 7 5 8 8 8 8 8 5 4 4 2 2 3 2 2 1 2 2
2 2 3 2 2 1 1 1 1 1 0 1 1 1 1 1 2 1 0 5 6 7 6 1 -1 0 1 4 4 6 4 5 7 9 8 8 5 4 4 3 2 2 2 2 1 1 2
2 3 2 2 2 1 2 1 1 -0 1 1 0 1 1 1 0 1 1 2 6 6 6 2 -0 0 4 3 1 4 3 5 6 7 8 8 7 5 5 5 4 3 4 3 2 2 2
2 2 2 2 2 2 2 1 0 1 0 -0 0 0 0 0 -1 -3 -1 0 5 6 6 2 0 4 4 3 3 -0 3 5 6 7 8 8 8 6 6 4 3 4 4 7 2 2 1
1 2 1 2 2 1 1 1 0 0 -0 0 0 -0 -0 -2 -1 -1 -2 -2 2 3 6 3 1 5 3 2 2 1 3 5 6 6 7 8 7 6 5 5 6 4 5 4 3 1 1
2 2 2 2 1 -0 -0 1 -0 0 -0 0 -2 -1 -2 -2 -1 -1 0 -0 0 4 6 3 5 4 3 2 1 1 3 4 5 6 7 8 7 7 6 6 8 5 5 4 3 1 1
2 2 2 1 1 1 -0 -0 -1 0 -2 -1 -2 -0 -1 -1 -2 -2 -0 -1 1 3 5 4 4 2 2 2 2 1 3 4 3 5 5 5 6 7 6 5 4 3 2 2 0 -1 -0
2 1 0 0 0 -0 -1 -2 -2 -2 -2 -3 -2 -0 -1 0 -0 -0 0 2 1 4 5 4 4 2 2 2 2 2 3 3 3 4 2 3 5 2 1 0 1 1 2 3 1 -1 -1
1 0 1 1 -1 -1 -1 -2 -2 -2 -2 -1 -1 -0 -0 1 0 -0 -1 1 -1 2 3 4 3 2 3 2 2 2 2 2 3 4 4 4 1 0 2 1 2 2 3 2 2 -0 -1
1 1 1 -0 -0 -1 -1 -3 -3 -2 -1 -2 -1 -1 -0 1 1 1 -1 -1 1 1 3 6 4 3 3 2 2 2 2 1 1 3 3 3 1 -1 1 2 1 3 -0 0 0 2 3
0 -0 0 -1 -2 -2 -2 -1 -1 -2 -1 -1 -1 -0 -1 1 1 2 2 1 0 1 5 5 3 3 3 2 2 2 1 1 1 1 2 3 1 2 2 1 -0 1 0 1 1 2 3
0 1 -1 -2 -2 -2 -2 -1 -2 -3 -1 -2 -2 -1 -0 0 2 -0 1 1 1 3 5 5 3 3 4 2 2 1 2 1 1 -0 -0 1 -1 -0 1 -1 -1 -0 0 1 2 3 5
0 -0 -2 -1 -1 -1 -1 -1 -2 -1 -2 -1 -1 -2 -0 1 2 1 2 1 2 4 4 5 4 2 2 3 3 2 3 3 4 5 5 2 2 -1 -0 1 -0 0 2 4 6 5 4
-1 -1 -2 -3 -1 -1 -1 -1 -1 -2 -2 -2 0 1 1 2 2 2 2 2 3 2 6 0 3 2 3 2 3 3 4 4 2 2 4 4 5 2 0 1 2 2 3 4 6 5 4
-0 -1 -2 -2 -1 -2 -1 -1 -1 -1 -0 1 1 0 2 2 2 1 2 4 3 3 1 3 3 4 4 2 3 3 3 3 1 1 4 3 4 -0 1 0 1 2 4 1 4 2 2
-0 -1 -2 -2 -3 -2 -1 -1 -2 -0 1 2 1 1 2 1 1 -1 2 5 4 0 0 2 4 2 4 3 3 4 3 0 0 -1 -1 3 5 0 1 -1 -0 1 -0 4 4 2 4
-1 -1 -3 -2 -1 -3 -2 -2 -1 1 2 1 1 1 2 1 1 2 4 4 3 -1 -0 1 1 1 1 2 2 2 1 0 -1 -1 -1 1 2 2 1 3 3 2 3 2 2 4 4
-0 -1 -1 -3 -3 -3 -2 -2 -2 1 1 1 1 2 2 -0 2 2 4 4 2 1 1 -1 -1 -1 0 0 2 1 2 0 -1 -1 1 -0 3 4 3 -1 -0 0 2 1 3 2 3
-1 -1 -1 -2 -3 -3 -2 -2 -6 1 2 2 1 2 1 2 3 4 2 4 1 2 1 1 0 -1 -1 1 2 1 1 -1 -1 -1 1 1 3 3 3 2 -1 1 0 1 2 3 5
-1 -1 -1 -1 -2 -3 -3 -2 -7 1 2 1 2 3 2 3 3 3 5 4 4 2 2 1 1 -1 -0 1 0 2 2 0 -1 -0 -1 -1 2 3 4 4 3 3 2 1 3 6 4
-2 -1 -3 -2 -2 -3 -3 -3 -11 1 1 2 3 2 2 3 3 4 3 3 3 3 2 1 1 1 1 2 2 1 1 2 0 1 -0 0 4 3 2 1 1 2 3 3 6 6 6
-2 -1 -1 -2 -2 -3 -4 -3 -16 -1 1 2 2 3 3 1 0 2 3 3 3 2 1 2 2 1 1 2 2 2 2 2 3 1 1 1 4 3 3 2 2 3 3 4 4 5 6
-2 -2 -2 -2 -3 -4 -2 -3 -18 -2 1 2 2 2 3 1 1 1 2 2 2 1 2 1 1 2 2 2 1 1 1 0 1 2 2 3 4 5 5 4 4 6 5 6 7 6 6
-1 -3 -3 -3 -4 -4 -3 -4 -14 -10 0 1 1 2 3 3 1 1 -0 0 1 2 2 1 1 1 3 3 3 2 3 2 2 2 1 3 5 5 5 5 7 5 4 4 4 4 6
-3 -3 -3 -3 -5 -5 -4 -4 -11 -15 -2 1 2 2 2 4 1 -0 0 -0 1 1 1 1 3 4 4 3 4 3 4 4 3 3 2 2 4 6 6 5 3 2 3 3 3 5 5
-2 -3 -4 -4 -4 -6 -4 -5 -11 -15 -8 0 2 2 2 3 2 -1 -0 -1 1 2 2 4 5 3 3 4 5 4 5 3 5 6 2 2 2 6 6 6 6 2 1 2 4 7 3
-2 -3 -5 -4 -5 -4 -4 -9 -8 -4 -13 -2 1 2 2 3 3 1 2 1 1 1 5 5 5 5 4 5 5 5 4 1 5 7 7 6 6 6 6 6 4 1 2 2 6 5 3
-2 -3 -4 -4 -4 -5 -4 -4 -4 -3 -9 -7 -0 2 2 2 3 3 3 3 2 3 4 5 4 4 4 5 5 5 2 2 2 5 5 5 7 6 4 6 6 1 2 5 3 2 2
-2 -3 -3 -4 -3 -4 -4 -4 -4 -3 -5 -8 -0 1 2 2 4 4 4 3 4 4 4 4 4 4 4 5 5 5 5 2 3 4 2 5 3 6 5 4 2 2 2 2 2 2 2

GFSGBSN_850_dewp_045.txt.gz
Dewpoint
2 2 2 3 2 2 2 1 2 1 1 1 1 1 1 1 1 1 1 1 3 5 6 7 3 -1 1 6 6 7 7 7 8 7 6 8 7 5 4 3 3 3 3 2 2 2 1
2 2 2 2 2 2 2 2 2 0 -0 0 1 -1 0 1 1 0 2 1 0 4 6 7 3 1 2 6 4 6 4 6 8 8 7 7 6 4 4 4 3 1 2 3 2 3 2
4 2 1 2 1 2 2 2 0 1 0 1 0 0 0 0 0 0 1 1 -0 3 6 7 4 2 4 3 2 5 4 4 6 7 8 7 7 5 5 4 4 3 4 3 3 3 3
2 2 2 2 2 2 1 1 0 0 0 1 -0 -1 -2 -1 -3 -0 -1 -2 -3 -2 5 7 4 1 4 1 2 2 3 5 7 7 7 8 8 6 6 4 3 4 4 7 4 2 2
1 1 2 2 1 1 2 1 0 -1 1 0 -2 -2 -2 -2 -2 -2 -1 0 -2 -5 3 7 3 3 3 2 3 2 3 3 7 7 8 8 8 7 5 5 6 5 6 6 5 1 2
2 3 1 -0 1 -0 -0 0 -1 -1 -1 -2 -1 -3 -2 -1 -1 -1 -1 -2 -3 -2 1 5 3 4 3 2 3 3 2 5 6 6 8 8 7 7 7 7 8 6 6 4 4 2 1
2 1 1 1 1 -0 -0 -1 -0 -0 -2 -2 -2 -3 -2 -1 -1 -0 0 -2 0 1 3 3 4 3 2 2 1 1 3 4 6 6 7 7 7 8 6 6 5 4 4 3 1 -0 -0
1 2 2 1 -0 -0 -2 -0 -0 -1 -2 -0 -0 -2 -1 0 0 1 1 0 0 2 2 3 5 3 2 1 1 2 3 3 4 6 3 4 5 4 4 5 6 4 3 3 1 -1 -1
1 1 1 -0 0 -1 -0 0 -0 -1 -2 -1 -2 -2 -1 -1 -1 0 1 -0 -0 0 1 4 5 3 2 2 2 2 3 3 3 5 3 4 1 1 2 3 2 2 3 3 3 0 -1
1 1 1 -1 -0 -1 -1 -0 -1 -2 -3 -2 -2 -2 -1 -1 1 0 1 0 0 0 3 4 5 4 2 2 2 2 3 2 3 3 3 3 1 0 2 3 1 4 0 1 1 2 3
0 -0 0 -1 -2 -1 -1 -1 -1 -1 -0 -1 -1 -1 -2 -1 0 1 1 1 2 -0 4 4 5 3 2 3 2 2 3 1 3 3 3 3 2 2 1 2 1 2 1 1 1 2 2
-0 1 -1 -2 -2 -1 -3 -2 -1 -0 -1 -2 -2 -2 0 -0 1 0 2 1 -1 2 3 5 4 4 4 2 2 2 2 1 0 1 1 1 -1 0 1 -1 -0 -0 1 1 1 2 4
-0 0 -1 -2 -2 -2 -1 -1 -1 -1 -0 -0 1 1 1 1 1 1 2 -1 -0 2 2 5 5 4 4 4 3 2 3 3 3 3 3 2 2 -1 -0 2 -0 2 2 2 6 6 4
0 0 -1 -2 -2 -1 -1 -1 -1 -0 -1 0 2 0 2 1 2 1 0 2 1 -1 3 4 4 3 6 3 3 3 4 3 2 2 3 2 3 2 -0 1 2 2 2 2 5 5 3
0 -0 -1 -2 -2 -2 -1 -2 -2 -0 1 2 -0 1 1 1 1 1 1 3 2 5 4 5 4 4 5 3 4 3 3 3 1 1 3 3 3 1 0 -0 1 2 4 1 3 1 -0
-0 -1 -0 -1 -1 -1 -2 -2 -1 0 1 2 0 0 1 2 2 1 2 4 4 4 2 2 5 3 5 4 4 4 3 1 1 0 -1 3 4 2 2 -0 1 0 -0 2 0 0 3
-1 -1 -0 -2 -2 -2 -3 -2 -2 0 1 1 0 1 1 1 1 1 3 4 3 2 1 2 2 3 1 4 3 3 3 1 -1 -0 -1 1 2 3 2 2 3 2 4 2 2 2 3
-1 -1 -1 -1 -2 -2 -4 -2 -10 0 2 1 1 2 2 1 1 2 3 2 4 3 2 0 -1 0 1 1 3 1 2 1 -2 -2 1 0 3 5 3 0 -0 1 1 1 1 1 2
-2 -2 -0 -2 -3 -3 -5 -12 -13 1 2 0 -0 1 1 2 3 3 2 3 3 4 2 1 0 -1 -1 1 2 1 2 -0 -1 -1 1 1 4 1 3 1 0 2 1 1 1 3 1
-2 -2 -2 -2 -3 -3 -7 -13 -10 1 1 1 1 1 1 3 2 3 5 4 5 2 2 0 -1 -2 -0 1 1 3 3 0 -0 1 -0 -1 2 1 2 2 2 2 2 1 2 4 3
-1 -1 -2 -3 -2 -4 -6 -10 -19 0 2 3 3 2 2 3 3 4 4 3 4 3 1 1 0 -0 1 2 1 2 2 1 0 1 -0 1 2 2 2 2 2 2 3 3 3 3 5
-1 -1 -3 -3 -3 -4 -4 -7 -20 -6 1 2 2 2 3 3 3 3 4 4 4 3 2 2 2 2 1 2 2 1 2 2 2 1 1 1 1 3 0 1 2 2 3 3 3 3 5
-2 -2 -3 -3 -3 -4 -4 -6 -16 -14 1 1 2 2 3 1 1 1 2 2 2 1 1 1 1 3 4 4 1 1 1 0 1 1 1 3 3 0 2 2 4 5 4 3 3 4 5
-3 -2 -3 -3 -4 -4 -4 -6 -13 -20 0 1 1 2 3 2 1 1 1 2 3 2 2 2 2 4 3 3 2 1 2 2 2 1 0 3 3 2 2 3 5 4 2 3 4 5 4
-3 -1 -3 -3 -9 -6 -13 -15 -14 -17 -10 1 1 2 2 4 1 -0 0 3 2 1 2 4 4 4 3 3 4 4 5 3 2 3 2 2 3 5 5 4 2 3 3 3 4 4 5
-2 -1 -3 -3 -4 -4 -4 -7 -18 -13 -17 -3 1 1 2 3 2 2 -0 -0 2 2 2 5 4 2 3 4 4 5 5 4 5 5 2 3 3 5 6 5 6 4 1 2 2 5 2
-2 -2 -2 -2 -3 -3 -4 -4 -4 -8 -14 -13 1 1 1 2 3 2 1 1 -0 2 4 5 4 4 3 4 5 4 4 2 5 5 6 5 6 6 5 6 4 0 0 3 6 4 2
-2 -2 -2 -3 -3 -3 -4 -4 -3 -4 -6 -14 -4 1 1 2 3 3 3 3 2 2 3 4 4 4 4 5 5 4 3 2 3 5 5 5 6 7 6 6 5 -1 2 5 3 2 2
-3 -2 -2 -2 -2 -3 -3 -3 -3 -3 -3 -4 -6 0 0 1 3 4 3 4 4 3 3 3 4 3 3 4 4 4 4 3 3 5 3 5 4 5 3 3 -1 1 2 2 1 1 1

GFSGBSN_850_dewp_048.txt.gz
Dewpoint
3 4 3 2 2 3 3 1 2 1 1 1 1 2 1 -1 1 1 0 1 1 2 3 5 6 6 1 4 5 7 7 1 9 8 8 8 7 7 5 4 4 4 3 3 3 3 2
3 3 3 3 2 3 3 2 2 0 0 0 -0 1 -0 -1 0 -1 1 1 0 1 1 5 5 5 1 4 -1 6 7 4 9 8 8 6 7 6 4 3 4 3 3 2 2 2 3
2 2 2 3 2 1 1 2 0 1 0 1 1 0 -1 -2 -3 -1 0 -1 -1 -2 -2 4 5 4 3 1 4 4 5 5 5 7 7 6 7 6 5 4 4 3 4 3 3 3 3
2 3 3 2 1 2 1 0 -0 -1 1 -0 -2 -2 -2 -2 -2 -1 -2 -2 -0 -2 -4 -1 4 5 4 -0 3 5 4 5 6 7 7 6 7 6 6 4 4 4 4 6 3 2 2
2 2 2 1 2 2 0 -1 -1 0 0 -1 -1 -2 -2 -3 -1 -1 -1 -2 -3 -2 -3 -3 5 4 2 1 1 4 4 5 7 7 7 7 8 7 5 5 5 4 6 6 5 2 3
2 1 2 2 1 -0 -0 0 0 0 -0 -1 -2 -0 -0 -2 -0 -0 -1 -2 -4 -3 -3 1 5 3 3 2 1 2 2 5 7 8 8 8 8 8 7 6 8 7 6 5 4 2 2
1 1 2 1 -0 1 0 0 1 -0 -0 -2 -0 -1 -3 -2 -1 0 0 -1 -2 2 2 3 3 4 3 1 3 2 3 5 6 7 8 7 8 8 8 6 4 4 5 4 1 -0 -1
1 1 1 1 1 -1 -0 -1 -0 -1 -1 -0 -1 -2 -3 -2 -2 -1 0 1 0 1 1 1 3 4 3 2 3 3 3 4 7 7 5 7 7 5 6 6 6 6 5 4 1 -0 -1
1 1 0 -1 -0 -2 -1 -2 -1 -0 -1 -1 -1 -1 -1 -2 -3 -0 -0 0 1 0 2 2 2 4 2 1 2 2 3 4 5 5 4 5 2 2 3 4 5 3 3 3 3 0 -1
1 1 1 -0 -2 -2 -1 -1 -1 -1 -0 -1 -1 -0 -1 -2 -2 0 -0 1 -1 1 2 4 4 5 3 2 2 2 3 3 3 5 3 3 1 2 3 3 1 3 0 1 2 2 3
0 0 1 -1 -2 -2 -1 -1 -1 0 -1 -0 -1 0 1 1 0 -1 -0 0 -1 1 4 4 5 4 3 3 2 3 3 1 3 3 3 3 2 1 2 2 1 2 0 1 1 2 2
0 0 1 -1 -2 -2 -2 -2 -1 -2 -1 -0 -0 1 1 2 1 1 0 1 1 0 3 5 5 5 4 2 2 3 2 1 1 2 2 1 -0 0 1 -0 -0 0 0 1 1 1 1
-0 -0 1 0 -2 -2 -3 -1 -2 -0 0 1 1 0 0 1 1 1 1 1 -1 2 2 5 6 4 3 3 3 3 3 3 3 5 5 2 2 -1 -0 1 0 0 0 1 2 1 2
-1 -0 -1 -0 -0 -1 -2 -1 -1 -0 1 1 -0 1 1 1 0 1 1 1 1 2 2 4 3 4 6 3 4 4 3 4 2 2 3 3 3 1 -1 1 2 2 0 1 2 5 3
-0 -0 -1 -1 -1 -1 -1 -2 -1 -0 0 1 -0 0 2 1 0 1 1 2 3 3 4 5 3 5 6 4 4 3 3 3 2 1 2 2 3 1 -0 -0 0 2 1 -0 2 -0 0
-0 -1 -1 -1 -2 -2 -1 -2 -2 1 1 0 -0 0 1 1 2 2 2 4 4 3 3 2 5 3 6 5 5 3 3 1 1 -0 -0 2 3 2 1 0 0 -0 -0 2 -2 -2 2
-3 -1 -1 -1 -2 -6 -2 -2 -1 1 1 -1 -1 1 1 1 0 0 2 3 3 3 3 2 3 2 3 3 3 3 2 1 -0 0 -1 1 1 4 2 2 3 2 3 1 0 0 2
-2 -1 -1 -2 -3 -4 -6 -2 -5 1 0 -1 -1 1 1 2 1 2 3 2 3 3 2 2 -1 0 2 2 3 2 3 1 -1 -1 2 0 2 4 4 0 -0 1 2 1 0 -1 1
-2 -1 -6 -2 -2 -4 -8 -13 -12 1 0 -1 -0 1 1 2 2 3 2 3 4 4 3 1 0 -1 -0 1 2 2 1 0 -1 -1 1 0 2 1 3 1 1 2 1 1 0 2 -0
-5 -1 -11 -2 -2 -3 -4 -12 -15 -0 1 1 1 -1 1 2 2 3 4 4 5 2 1 -1 -1 -1 -0 1 1 3 2 1 0 1 -1 -1 1 0 2 0 1 1 2 1 1 2 2
-6 -1 -13 -6 -4 -2 -3 -8 -18 -2 1 1 2 1 3 3 4 3 3 4 3 4 1 -1 0 -1 1 2 2 3 2 1 1 0 0 -0 2 2 2 2 2 1 2 2 1 2 3
-9 -2 -10 -19 -11 -4 -4 -9 -17 -3 1 1 2 2 2 3 2 3 3 4 3 3 2 2 3 2 1 3 2 3 2 1 1 1 0 -0 1 3 0 1 2 2 2 2 2 2 3
-12 -2 -3 -15 -19 -23 -23 -15 -13 -7 0 1 1 2 2 1 1 1 2 2 2 1 2 1 2 3 4 3 2 1 -0 -0 0 1 1 2 2 1 1 1 3 4 3 3 3 2 3
-16 -3 -2 -5 -19 -21 -21 -22 -12 -15 -0 1 1 2 2 2 1 1 1 2 2 2 2 3 3 3 3 2 1 1 1 1 1 0 -0 3 3 -0 1 1 4 2 1 2 2 2 3
-16 -3 -2 -3 -7 -20 -17 -20 -19 -11 -12 -0 1 2 2 2 2 0 1 2 2 2 4 4 4 4 3 2 3 4 4 2 2 2 1 1 2 2 4 4 2 3 3 3 4 4 4
-13 -6 -2 -2 -2 -8 -10 -9 -5 -16 -14 -9 1 1 2 2 1 3 1 1 2 2 2 3 3 2 2 3 3 5 5 3 5 5 2 2 2 3 5 4 5 2 0 1 1 5 3
-13 -5 -2 -2 -3 -3 -3 -5 -4 -3 -8 -10 -3 1 1 2 3 3 1 1 0 2 3 4 3 3 3 3 5 4 4 2 5 5 5 5 5 5 4 5 4 -0 -1 3 5 4 2
-16 -4 -2 -2 -2 -2 -2 -4 -3 -4 -3 -5 -7 -0 1 1 2 3 4 3 1 2 3 4 3 3 4 5 4 3 4 2 3 4 3 3 4 5 5 6 4 -1 2 5 3 2 2
-17 -4 -3 -3 -3 -3 -3 -3 -4 -3 -3 -3 -7 -1 -0 0 2 3 4 4 3 3 3 3 3 3 3 4 4 3 4 3 3 6 3 4 3 4 4 3 -1 -1 2 2 2 1 1

GFSGBSN_850_dewp_051.txt.gz
Dewpoint
3 3 3 3 3 2 2 2 2 2 -0 1 1 1 -0 0 -1 -1 1 0 1 1 1 2 3 6 6 4 1 6 7 6 0 8 8 9 9 7 6 5 4 4 3 3 3 3 3
3 2 3 3 2 2 2 2 1 0 -1 0 1 -0 -2 -2 -1 -2 -2 -2 -1 1 -1 0 3 5 6 3 2 -2 7 7 1 8 8 8 8 7 5 4 5 3 3 3 3 2 2
2 2 2 1 2 2 2 1 0 -0 -1 0 1 -2 -2 -2 -2 -2 -1 -2 -2 -2 -4 -1 2 5 5 3 1 -2 6 8 5 8 7 8 7 7 5 4 3 3 4 3 3 3 3
2 3 2 3 2 1 -0 0 0 -1 -0 0 0 -2 -2 -2 -3 -2 -2 -2 -2 -4 -1 -3 1 4 5 4 2 4 6 6 6 7 6 6 7 6 5 4 4 4 4 6 3 2 2
2 2 1 2 2 1 1 0 -0 1 0 -0 -1 -2 -0 -1 -2 -1 -1 -0 -1 -3 -4 -3 0 2 4 3 1 5 5 6 6 6 7 6 6 7 5 5 5 4 6 6 4 2 2
1 1 1 0 1 1 -1 -1 -0 -1 -1 -0 0 -0 -2 -4 -4 -1 0 -1 -3 -4 -4 -2 -0 4 4 3 1 5 5 5 7 8 8 8 7 8 6 6 8 7 6 5 5 2 2
1 1 1 1 0 -0 -1 -0 -0 -1 0 -1 -1 -0 -1 -2 -1 -2 0 -2 -2 0 0 2 4 4 4 2 1 4 4 5 7 8 8 8 8 9 7 5 4 4 5 5 3 0 -0
1 1 1 1 1 -1 -1 -2 -2 -1 -0 -1 0 -1 -1 -1 -1 -2 -1 0 -0 0 -0 1 3 4 3 3 3 2 2 5 7 7 7 7 8 6 7 7 6 6 6 5 2 0 -0
1 1 1 1 -0 -1 -2 -2 -1 -1 -1 -0 -1 -1 -1 -1 -1 -4 -0 1 -0 0 1 2 2 3 4 3 3 3 3 5 6 6 5 6 4 6 6 7 7 6 4 3 3 0 -1
-0 1 1 1 1 -1 -2 -2 -2 -1 -1 -1 -1 -1 0 1 1 -1 -2 0 -1 0 -1 2 3 3 3 1 2 3 3 4 5 4 4 2 1 5 4 5 3 3 0 1 1 2 3
1 0 1 0 1 -1 -1 -2 -0 -1 -1 -1 0 0 2 1 2 1 -2 -0 -1 1 2 2 3 4 3 2 2 3 3 2 4 4 2 3 2 3 3 3 1 2 0 1 1 2 1
-0 -0 0 -0 -0 -1 -1 -1 -2 -0 -0 -0 2 0 -1 1 0 1 1 1 1 1 4 4 4 5 4 2 3 3 3 1 2 2 1 1 0 -0 0 0 -0 0 -0 1 1 1 1
-1 -1 -0 0 -1 -2 0 0 -1 0 1 1 2 2 0 1 2 1 1 1 -3 2 2 4 5 3 3 4 4 4 3 2 5 6 5 2 2 -1 -0 1 0 -0 0 0 1 1 2
-1 -1 0 0 0 -1 -1 -1 -0 1 1 1 1 1 2 1 0 -1 -1 -1 0 1 2 3 4 3 6 4 5 4 3 5 1 2 3 4 5 1 -1 1 2 1 0 1 1 4 3
-2 -0 -0 -0 0 -3 -1 -1 -0 1 1 -1 -0 -0 1 2 1 -0 1 3 3 3 3 5 4 5 6 4 5 5 3 3 2 0 2 2 3 0 -0 -0 -0 2 1 -1 1 -1 1
-5 -2 -0 -1 -1 -2 -1 -1 -0 1 -0 -1 -1 -0 1 1 1 0 1 3 3 2 3 2 4 5 4 5 5 5 3 1 1 0 -0 0 3 2 1 -0 0 -0 -0 2 -1 -4 1
-4 -2 -3 -1 -2 -5 -1 -1 -3 -0 -1 -1 -1 -0 -0 -0 -0 -0 1 3 3 3 3 2 3 3 3 3 3 3 3 1 -1 -0 -1 0 1 4 1 2 3 2 2 1 0 -0 0
-2 -1 -15 -3 -4 -8 -1 -5 -7 -0 -1 -2 -1 0 0 1 -0 1 3 2 3 4 3 2 -0 1 2 2 3 2 2 1 -1 -1 1 0 1 4 3 0 -0 0 1 0 0 -0 -0
-4 -6 -19 -8 -15 -15 -3 -10 -13 -1 1 0 -0 1 1 2 1 3 3 3 3 4 4 1 -0 -1 0 1 2 1 1 -0 -0 -0 1 0 1 1 2 0 -0 2 1 -0 -1 -1 0
-10 -7 -16 -12 -24 -26 -20 -12 -16 -0 1 1 1 -1 1 1 1 3 4 4 4 3 1 -1 -0 -1 0 1 1 2 2 2 -0 -1 -0 -1 0 0 2 -0 0 1 2 1 -0 0 1
-10 -6 -14 -19 -22 -25 -28 -17 -17 -0 1 1 2 2 2 3 3 3 3 4 3 3 1 -0 -0 -1 1 2 2 3 1 1 1 1 0 -0 2 2 1 1 2 2 1 2 -0 1 1
-14 -5 -10 -18 -19 -24 -27 -23 -16 -1 1 1 1 1 2 2 2 2 2 3 3 2 2 2 3 2 2 2 2 3 2 1 1 0 1 -1 2 2 0 0 2 2 2 2 2 1 2
-12 -8 -4 -10 -19 -22 -25 -26 -16 -5 0 1 1 1 2 1 1 1 2 2 2 2 2 2 2 3 4 3 2 0 -1 -0 -0 1 1 1 3 1 1 0 2 2 2 1 1 1 1
-13 -9 -2 -5 -14 -18 -17 -27 -21 -16 -1 1 1 1 1 1 1 1 1 2 2 2 3 4 3 3 3 2 1 1 1 1 0 -0 -0 2 2 0 1 1 3 0 1 1 1 1 1
-7 -14 -3 -2 -4 -12 -9 -12 -9 -18 -13 -1 1 1 1 2 2 0 1 2 2 3 4 4 3 3 3 2 3 3 3 2 2 2 1 0 2 3 3 3 1 2 3 3 3 4 2
-3 -14 -7 -2 -2 -4 -7 -4 -5 -4 -18 -9 1 1 1 2 1 2 2 1 1 2 2 4 2 1 2 2 3 4 4 3 4 4 2 1 1 3 5 5 4 1 0 2 1 5 2
-4 -16 -8 -2 -2 -3 -2 -3 -6 -3 -4 -13 -7 0 1 1 1 3 2 1 0 2 1 3 3 3 2 2 4 4 4 2 4 5 6 5 5 4 4 4 3 -0 -1 3 5 3 2
-8 -15 -5 -3 -2 -4 -3 -2 -4 -3 -3 -5 -6 -3 -0 1 1 2 4 4 1 2 2 4 2 3 4 4 4 3 4 3 3 3 4 4 4 5 4 6 4 -1 3 5 2 2 2
-10 -7 -9 -3 -2 -4 -3 -3 -4 -5 -3 -3 -7 -2 -1 -1 2 3 3 4 4 4 2 2 2 3 3 4 3 3 4 3 3 6 2 4 1 3 2 2 -1 -2 1 2 1 1 0

GFSGBSN_850_dewp_054.txt.gz
Dewpoint
3 2 3 3 2 3 2 2 1 0 0 -1 0 -0 -0 1 0 -1 -1 -1 -2 -1 -0 1 0 2 5 6 5 7 7 6 -3 4 8 9 7 6 6 5 4 4 4 4 3 4 3
2 3 3 2 3 3 1 0 0 1 -1 -1 -1 0 -1 -1 -1 -2 -1 -2 -1 -0 1 0 -1 1 4 5 4 4 2 7 2 7 8 9 8 6 5 5 4 4 4 3 3 3 2
2 3 3 1 3 2 1 -0 0 0 0 0 0 -1 -1 -1 0 0 -1 -2 -2 -1 -1 1 -0 0 4 5 4 3 -1 6 2 6 8 8 7 6 5 4 4 3 4 3 3 3 3
3 2 3 2 1 1 1 -0 0 -2 -1 -0 -1 0 0 0 0 0 -2 -1 -2 -0 -1 -1 0 -0 4 4 4 5 5 7 6 6 8 8 7 6 5 4 4 4 4 6 3 3 2
3 2 2 2 1 1 -0 -1 -0 -1 -2 -1 -0 -1 -0 -1 -1 -2 -1 -1 -1 -1 1 1 -0 -0 4 3 4 5 7 6 6 5 6 6 5 7 5 5 5 5 6 6 5 2 2
2 2 2 2 2 1 -0 -1 -1 -2 -2 -0 -1 -0 0 -0 -0 -2 -1 -1 -3 -3 -4 -2 -2 2 3 3 4 3 5 6 7 7 7 7 6 7 5 6 6 5 5 5 5 1 2
2 2 1 1 2 1 0 -1 -0 -0 -1 0 -1 -0 -3 -0 0 -1 -1 -3 -3 -1 -1 -0 1 3 4 3 4 3 5 6 6 7 9 7 7 8 7 5 3 4 5 5 3 0 0
2 2 1 1 2 1 -0 -1 -1 -0 -0 -0 -1 -2 -2 -0 -2 -1 -4 -0 -1 -0 -0 1 2 2 4 4 3 4 4 5 7 8 8 8 7 7 6 5 6 5 5 5 3 0 -0
2 1 1 0 1 0 0 -0 -0 0 -0 -0 -1 -0 0 1 1 1 -2 0 -0 0 -0 1 2 3 4 4 2 3 3 5 6 7 7 7 7 7 7 7 7 6 5 4 3 0 -1
2 0 0 0 -0 0 -1 0 1 -1 0 0 1 2 2 1 0 0 -2 0 -0 0 -4 2 3 3 4 4 3 2 3 5 6 6 4 3 5 7 7 7 7 7 2 1 1 2 4
0 -0 0 0 1 0 -1 0 0 0 1 2 1 0 -0 0 1 1 -1 -0 -2 0 -1 1 3 4 3 3 2 2 4 3 4 5 4 5 5 5 7 6 6 3 0 1 1 1 1
-6 -0 1 0 0 1 -1 0 0 0 1 1 -0 1 -0 1 0 1 1 -1 -1 0 3 4 4 5 4 3 4 3 3 2 2 2 1 1 0 -0 0 1 0 -0 -0 0 0 0 1
-10 -1 1 0 -1 0 0 -0 0 1 2 1 1 0 -1 -0 0 -0 -0 -1 -1 2 2 4 5 4 4 5 4 4 4 3 6 6 5 2 2 -1 -0 1 -0 -0 2 1 -1 1 1
-12 -0 1 -1 -1 0 -0 0 -0 1 1 0 0 -1 -1 -1 -1 -0 -0 0 2 2 3 3 4 4 6 4 5 5 4 4 1 2 3 4 5 1 -0 1 2 1 0 1 -1 3 2
-13 -1 0 -1 -1 -1 -0 -3 -2 -1 -1 -1 -1 -0 2 2 0 -1 0 1 3 3 2 5 3 5 5 5 5 5 4 3 1 0 3 2 3 0 -0 -0 -1 1 0 -1 -0 -1 0
-8 -2 0 -1 -3 -3 -2 -11 -4 -1 -2 -2 -1 -1 0 1 1 1 0 4 4 3 2 1 4 4 5 6 5 5 4 1 1 0 -1 -0 4 2 1 -0 -0 0 -1 1 -2 -4 -1
-8 -3 1 -2 -9 -19 -9 -14 -7 -2 -2 -2 -1 -0 0 1 1 -0 2 3 4 3 2 2 3 3 3 4 3 3 2 1 -1 0 -1 -0 1 4 1 1 2 2 2 0 -0 -1 0
-6 -8 -0 -3 -18 -26 -29 -15 -12 -3 -1 -2 -1 -1 1 1 0 2 3 3 3 3 3 -0 0 1 2 2 2 2 2 1 -1 -1 1 -0 2 4 3 -0 -1 0 1 -0 -0 -0 -0
-6 -12 -1 -2 -18 -24 -30 -24 -15 -1 0 -0 -0 -0 1 1 3 3 3 4 3 4 3 0 -0 -0 -0 1 2 1 0 0 -1 -1 1 -0 0 1 3 0 -0 2 1 -1 -1 -1 -0
-7 -13 -1 -1 -12 -23 -28 -29 -18 -0 0 1 1 0 1 1 1 3 4 4 4 3 1 -1 -0 -1 -0 1 1 2 2 2 -1 -1 -1 -1 -0 -0 1 -1 0 2 2 -0 -1 1 1
-10 -11 -3 -1 -3 -22 -25 -29 -23 -3 0 1 1 1 2 2 2 3 3 3 3 3 0 -0 -0 -0 1 3 2 2 1 1 1 2 -0 -1 2 2 1 -0 1 1 1 1 -1 -0 -0
-12 -10 -7 -2 -2 -14 -22 -28 -26 -11 0 0 1 1 1 2 1 1 1 2 3 2 2 2 3 2 1 2 2 3 1 1 1 -0 0 -1 2 1 -0 0 1 2 2 1 1 1 1
-10 -7 -9 -4 -3 -4 -18 -24 -25 -18 -1 1 1 1 1 0 -0 0 1 2 2 2 2 3 2 3 3 3 2 0 -1 -1 -1 0 1 2 2 0 1 0 2 2 2 1 1 1 1
-4 -5 -11 -3 -3 -3 -6 -17 -21 -20 -3 0 0 1 1 1 0 1 1 2 3 2 3 3 2 3 3 2 1 1 0 0 -0 -0 -0 1 2 2 3 1 3 -1 -0 -0 0 -1 0
-4 -3 -10 -6 -2 -3 -4 -4 -15 -12 -18 -3 0 0 1 1 1 0 2 2 2 3 3 3 3 3 3 2 2 3 3 2 2 2 1 -0 2 4 3 2 1 2 3 2 2 3 0
-4 -3 -9 -12 -2 -2 -4 -3 -5 -13 -12 -14 -0 1 1 1 -0 1 3 1 1 1 1 3 2 2 2 2 2 3 3 2 4 4 1 1 1 2 4 3 4 -0 -0 2 1 4 1
-4 -4 -11 -12 -1 -2 -3 -2 -3 -8 -5 -9 -9 -1 0 1 1 3 3 2 1 1 1 3 3 2 2 2 3 3 4 2 4 4 6 5 5 3 4 4 2 -1 -1 2 6 3 2
-5 -5 -11 -11 -3 -3 -3 -3 -3 -4 -3 -5 -6 -4 -1 -0 0 1 3 4 2 2 2 2 1 3 3 4 3 3 4 4 4 2 4 3 4 5 3 5 4 -1 2 5 2 2 2
-2 -3 -7 -6 -9 -3 -2 -4 -3 -3 -5 -4 -5 -4 -3 -1 0 2 2 2 4 4 3 3 1 2 2 3 3 3 4 3 2 6 2 4 0 1 2 1 -2 -1 1 0 1 1 1

GFSGBSN_850_dewp_057.txt.gz
Dewpoint
2 2 2 3 3 2 2 2 1 -1 0 1 -0 0 -0 1 1 1 0 -1 1 -0 -1 -1 -1 0 1 4 5 5 7 7 7 5 7 8 8 8 7 6 4 4 4 3 3 4 3
3 3 3 2 2 2 2 1 0 0 -2 -1 0 -1 -1 0 0 -1 -0 1 -0 -2 -2 -2 -1 -0 1 5 5 5 5 3 6 7 7 8 7 7 6 6 4 4 3 3 3 3 3
3 3 3 3 2 1 2 1 1 -0 -1 -1 -1 -1 -1 -1 -1 0 0 1 1 0 -1 -1 -1 0 2 3 4 4 4 5 6 6 7 8 7 5 5 4 4 3 5 3 3 3 3
1 3 2 2 2 2 2 1 0 -1 -1 -2 -1 -1 -2 -0 -1 -1 -0 -1 -1 -2 -1 -0 -1 0 2 2 4 4 4 3 5 3 7 7 6 5 4 4 4 5 4 6 3 3 2
2 2 2 2 2 2 2 2 -1 -1 -0 -1 -2 -1 -1 -0 -0 -0 -1 -1 -2 -3 1 2 0 1 1 1 4 4 5 7 8 5 7 6 6 6 4 5 6 5 7 6 4 3 3
2 3 2 1 2 2 1 1 0 -1 0 -0 0 0 -0 -1 -1 -1 -0 -2 -4 -1 -3 -1 0 1 0 3 3 4 5 7 7 6 5 6 6 7 6 6 7 7 6 5 4 2 3
1 2 1 2 2 1 1 1 1 1 1 0 0 -0 -0 -1 -0 -1 -1 -4 -3 0 -0 -1 -1 1 2 3 3 3 4 7 6 6 6 6 7 7 7 5 3 3 4 5 4 0 1
0 2 1 1 1 1 0 -0 1 1 1 1 1 1 1 1 0 1 -1 -2 -1 -1 -2 -0 1 1 4 5 5 3 5 5 6 7 7 7 8 6 5 4 4 4 5 5 3 0 0
-0 0 0 0 1 1 1 1 0 0 1 1 0 0 1 -0 2 0 -0 -1 -0 -1 -2 1 1 2 4 3 4 4 5 6 6 7 6 6 6 6 6 6 6 5 5 4 4 0 -1
-1 -0 0 0 1 1 1 0 -0 1 2 0 -0 0 0 -1 0 1 -1 -0 -0 0 -2 2 3 3 4 3 4 4 5 5 6 6 5 5 6 7 7 7 6 8 4 2 1 2 4
-4 -3 -2 0 -0 -1 -1 0 0 0 1 -1 -0 0 0 -0 1 1 -1 -1 -1 1 1 2 3 3 4 4 3 3 4 3 5 5 5 5 7 6 7 7 5 6 1 1 1 1 1
-8 -3 -2 0 -0 -1 0 0 1 -1 -1 -0 -1 -0 -1 -0 0 1 -1 -2 -1 -3 2 4 3 4 4 4 4 4 4 3 3 4 2 2 3 3 3 5 4 1 -0 0 -0 0 3
-10 -4 -1 -6 -1 -1 0 1 0 -2 -2 -1 -0 -0 -2 -1 -0 -1 -1 -0 -2 -0 1 4 5 4 4 4 4 4 5 4 6 6 5 4 2 -0 -0 1 -1 0 3 4 1 3 3
-9 -5 -2 -13 -8 -2 -1 -0 -3 -1 -3 -2 -2 0 -0 -1 0 1 0 -2 0 2 2 3 5 4 6 4 5 4 5 4 1 2 3 4 6 2 -0 1 2 1 2 3 -0 2 1
-8 -4 -4 -13 -22 -11 -8 -7 -9 -3 -3 -4 -2 -2 0 0 0 -0 0 2 4 3 3 5 4 5 6 5 5 5 4 3 1 0 4 2 4 0 0 -0 -0 1 2 -2 0 -1 1
-7 -5 -6 -14 -23 -24 -30 -20 -14 -4 -2 -2 -1 -2 0 1 1 -0 1 4 5 3 2 1 4 3 5 5 6 4 4 1 1 0 -1 0 4 2 0 -0 -0 -0 -1 2 -0 0 -1
-6 -6 -7 -16 -21 -25 -29 -31 -16 -2 -2 -2 -1 -1 1 1 0 1 3 4 4 3 2 2 3 3 3 4 3 3 2 1 -1 -0 -1 -0 2 4 1 2 2 2 2 0 -1 -1 -1
-5 -7 -2 -10 -18 -24 -27 -32 -18 -2 -1 -3 -1 -1 1 1 1 2 2 2 3 3 2 -0 0 1 2 1 1 2 1 1 -1 -1 1 -0 2 4 2 -0 -1 -0 1 -1 1 1 -0
-5 -10 -2 -4 -13 -20 -25 -31 -25 -2 -0 -1 -0 -1 0 1 3 2 2 3 3 3 3 -0 -0 -0 -0 1 1 1 0 0 -1 -1 0 -1 1 4 3 1 -0 2 1 -1 -2 -1 2
-4 -10 -8 -1 -9 -19 -23 -28 -30 -5 0 0 0 0 -0 1 2 3 3 3 3 2 1 -1 -0 -1 -0 2 1 2 2 2 -0 -1 -1 -2 -0 -0 3 0 1 2 2 -1 -0 1 0
-4 -11 -9 -1 -4 -17 -19 -25 -31 -13 0 1 1 1 2 1 2 2 2 3 2 3 1 -0 0 -0 1 2 2 2 1 1 1 2 -1 -1 2 2 1 -0 1 1 2 1 -0 -0 1
-5 -9 -6 -3 -2 -12 -12 -22 -29 -27 -2 0 1 1 1 1 0 -0 1 2 3 3 3 2 2 2 1 2 1 2 1 1 1 -0 -0 -1 3 0 -0 0 1 2 2 1 1 1 0
-6 -6 -5 -6 -1 -5 -7 -17 -24 -27 -7 1 0 1 1 0 -1 0 1 2 2 1 2 3 2 2 2 2 2 0 -1 -1 -1 0 1 1 1 0 2 1 1 3 2 2 1 1 1
-6 -6 -4 -6 -4 -1 -3 -8 -13 -23 -15 -1 0 0 1 1 -0 0 1 1 3 2 3 3 2 2 2 2 1 0 -0 -0 -0 -0 -1 1 2 1 3 0 2 -2 -1 -0 1 -0 0
-9 -5 -4 -4 -12 -2 -2 -4 -6 -13 -19 -9 -0 -0 1 1 0 0 1 2 1 2 3 3 3 3 2 1 2 2 2 2 2 2 0 -1 2 3 2 2 -0 2 2 1 2 3 -1
-9 -4 -5 -5 -13 -3 -1 -3 -3 -6 -10 -12 -5 -0 1 1 -0 1 2 2 1 1 1 2 3 3 2 1 2 2 3 2 3 4 1 0 0 1 2 3 3 -1 -0 1 1 5 0
-4 -4 -5 -5 -12 -3 -2 -3 -3 -3 -5 -8 -9 -6 -0 0 1 2 1 2 1 0 0 3 3 2 1 1 3 3 3 1 3 4 3 4 4 3 2 3 0 -2 -2 0 7 4 1
-2 -4 -4 -4 -8 -7 -2 -2 -3 -3 -4 -5 -5 -6 -3 -1 -0 0 1 3 3 1 1 2 1 2 2 3 3 3 3 3 3 2 2 2 3 2 2 3 2 -2 2 5 3 2 1
-1 -2 -3 -3 -5 -6 -5 -3 -2 -4 -3 -5 -3 -4 -5 -4 -2 0 -0 -0 0 3 4 3 -0 1 1 3 3 3 3 4 2 6 1 4 1 1 0 -0 -3 -1 1 -0 -1 1 1

GFSGBSN_850_dewp_060.txt.gz
Dewpoint
3 3 3 3 2 2 1 3 2 1 0 -0 1 0 -0 0 -1 -0 -1 -1 1 1 1 -1 -2 -2 0 2 1 5 5 7 8 7 7 6 7 7 7 5 4 3 3 2 3 4 3
3 3 3 2 2 2 2 3 2 1 -1 -1 -0 -1 -1 -1 -1 -1 0 1 1 -0 0 0 -0 -1 1 2 -0 1 5 4 7 7 6 7 6 6 5 5 4 3 2 2 2 3 3
3 2 3 2 2 2 2 2 1 0 1 -0 1 0 -1 -1 -1 -0 -1 -1 1 0 -0 -0 0 -1 1 0 3 4 5 5 7 7 5 7 6 6 5 5 4 3 4 2 2 2 1
3 3 2 2 1 1 1 1 1 0 1 1 0 -0 -0 -1 -1 -0 0 -2 -3 -2 0 -0 0 0 0 -1 -0 3 4 4 6 7 6 7 7 5 3 4 4 3 2 4 0 1 2
2 3 2 1 1 1 2 1 1 1 1 2 1 0 -0 0 -0 -0 -1 -1 -2 -2 -1 0 2 0 0 -1 2 4 5 5 5 7 6 7 6 4 4 4 5 4 2 2 3 2 -0
-1 2 1 1 2 2 1 1 1 1 1 1 1 1 1 0 -0 -2 -1 -1 -3 -1 -2 1 0 1 0 1 3 4 5 4 6 7 6 7 7 7 5 3 4 4 3 2 1 2 3
-2 1 0 0 2 1 2 1 1 1 1 2 0 1 1 1 1 0 -0 -3 -1 1 -1 -1 -1 1 1 2 3 5 4 5 7 5 5 5 7 8 5 2 -0 1 2 1 1 0 1
-3 -3 -1 0 1 1 1 1 0 1 2 0 0 -0 -1 -1 1 1 1 -1 -1 -1 -2 0 1 0 1 4 4 4 4 7 6 6 3 6 7 5 3 3 2 2 1 1 3 1 1
-6 -5 -2 1 -0 0 1 0 1 2 2 -0 -1 0 -0 0 2 1 -0 -0 -1 -1 -1 1 2 1 3 4 3 4 5 6 4 4 5 5 5 3 4 4 4 3 2 3 3 1 -1
-7 -7 -2 1 -0 -0 0 1 1 2 2 -1 -2 -3 -1 -0 -1 -1 -0 -0 -1 -0 2 1 3 2 4 4 3 4 5 7 5 5 5 5 4 5 5 4 3 5 3 3 3 3 4
-7 -7 -6 -3 -3 -4 -1 0 1 2 -1 -3 -3 -3 -4 -4 -1 0 -1 -1 -1 0 4 3 3 4 4 4 4 5 5 4 5 5 5 5 6 7 7 4 4 5 3 2 1 2 2
-8 -6 -6 -12 -10 -8 -9 -1 -1 0 -2 -4 -4 -3 -3 -3 -3 -2 -2 -1 -1 3 4 4 3 3 4 4 4 5 5 3 4 4 3 4 5 4 5 6 4 -1 0 0 0 2 5
-7 -6 -8 -16 -18 -13 -25 -12 -6 -2 -1 -4 -2 -3 -3 -2 -1 -1 -1 1 4 4 2 5 5 4 4 5 4 4 4 5 6 7 7 4 5 3 5 4 4 3 3 7 6 7 4
-7 -6 -8 -15 -23 -24 -29 -28 -12 -4 -2 -3 -2 -2 -0 0 1 0 -0 2 4 3 4 3 4 5 6 3 5 5 4 4 1 3 6 7 7 4 3 2 3 2 3 6 3 0 -1
-7 -5 -8 -10 -18 -26 -28 -32 -17 -3 -3 -2 -2 -2 1 1 1 1 2 4 5 4 3 4 2 3 4 3 5 5 3 3 1 0 4 5 5 0 0 -1 0 2 5 -1 2 0 2
-7 -5 -7 -7 -9 -22 -27 -32 -23 -3 -2 -3 -1 -2 1 0 0 -0 4 4 5 3 2 1 3 3 3 3 3 3 3 1 1 -0 -1 2 6 2 0 -0 -1 1 -1 3 4 4 1
-8 -5 -7 -6 -8 -17 -27 -31 -31 -6 -2 -2 -1 -0 1 -0 0 2 4 4 3 2 2 1 2 2 2 2 3 2 2 1 -0 -0 -2 0 2 4 1 2 2 1 2 0 -1 -1 -0
-11 -5 -8 -7 -7 -13 -23 -28 -32 -10 -2 -2 -1 3 1 -0 3 2 4 3 2 3 2 -0 0 1 1 1 1 1 1 1 -1 -1 0 -0 2 4 3 -0 -1 -0 1 -1 2 2 1
-14 -5 -8 -7 -6 -9 -20 -26 -32 -15 -1 -0 -1 -0 0 0 5 4 2 3 3 2 1 -0 0 -0 -0 1 2 1 1 1 -1 -1 -0 -1 3 5 3 2 0 2 0 -1 -1 1 4
-15 -6 -8 -6 -5 -9 -19 -25 -30 -24 -1 -0 1 3 0 1 3 3 3 3 2 2 0 -1 -1 -1 -0 1 0 1 1 1 0 0 -1 -2 0 1 1 2 2 4 2 -0 4 5 1
-16 -7 -8 -5 -5 -8 -17 -22 -27 -29 -5 -1 0 2 2 4 2 2 2 2 2 2 1 0 -0 -1 -0 1 1 1 1 1 1 1 -1 -1 3 2 1 0 1 2 2 1 3 2 6
-17 -8 -6 -5 -5 -6 -12 -17 -25 -30 -11 -0 2 1 2 1 0 1 2 3 3 3 3 1 1 1 0 0 -0 1 1 0 0 -0 -0 -0 5 2 3 0 1 3 1 2 1 1 1
-17 -11 -6 -4 -5 -6 -8 -9 -21 -26 -17 0 0 0 0 1 0 1 2 2 2 2 3 2 1 1 2 1 2 0 -1 -1 -1 0 0 1 3 3 3 1 1 4 2 2 1 0 1
-17 -14 -8 -5 -4 -5 -5 -5 -13 -17 -21 -3 -1 0 1 1 1 1 1 1 3 3 2 3 2 1 1 0 0 0 -0 -0 -0 -0 -1 1 2 2 3 1 5 -0 -1 -1 0 -1 -0
-16 -16 -10 -5 -5 -8 -3 -4 -7 -7 -15 -13 -2 -1 1 1 -0 0 1 2 2 3 3 3 3 3 1 1 1 2 2 1 2 1 -0 -1 1 3 3 2 -0 1 1 1 2 4 -1
-8 -15 -12 -5 -5 -7 -2 -3 -5 -5 -7 -11 -9 -1 -1 1 -0 0 2 2 2 2 2 3 3 3 1 2 2 2 3 1 3 3 0 -0 0 1 3 4 2 2 0 1 -0 6 1
-2 -13 -10 -5 -5 -5 -6 -2 -3 -3 -4 -5 -6 -8 -2 -0 -0 1 1 2 1 1 2 2 3 3 1 3 3 2 3 1 3 3 3 3 3 4 3 3 -0 -3 -2 -1 7 5 2
-0 -8 -5 -3 -4 -3 -6 -4 -2 -3 -4 -3 -4 -6 -6 -2 -2 -3 1 2 3 2 2 2 3 2 3 3 2 2 1 2 3 1 2 1 3 3 1 3 2 -2 2 5 3 2 1
-0 -3 -2 -3 -2 -2 -4 -6 -4 -2 -3 -2 -3 -5 -3 -4 -6 -7 -9 -5 -2 1 2 3 1 1 1 2 3 2 2 4 3 4 1 2 -0 1 0 -1 -3 -1 0 0 0 1 1

GFSGBSN_850_dewp_063.txt.gz
Dewpoint
4 3 2 3 3 2 2 3 2 2 2 2 1 1 0 -0 -0 -0 -0 -0 1 -0 1 -1 -0 -1 -0 1 1 2 5 5 7 7 5 4 2 5 6 5 3 3 0 -0 1 3 2
2 1 1 2 2 2 3 2 2 2 1 1 1 0 -0 -1 -1 -1 0 -1 -0 1 0 -0 -0 -1 1 0 -2 -1 -0 6 8 8 4 4 3 4 4 4 3 2 1 1 1 3 3
-1 -2 -0 2 1 1 2 3 2 1 2 2 1 2 1 0 -2 -1 -1 0 0 0 0 0 -1 1 1 -1 -1 4 -0 5 6 8 4 4 3 4 3 4 4 2 3 2 1 1 1
-2 -4 -1 2 2 2 2 3 1 2 2 2 1 2 2 1 -2 -2 1 -0 1 -1 -1 0 -0 1 1 -1 -1 0 2 3 6 7 5 4 5 5 5 3 4 4 3 5 1 1 0
-6 -5 -3 1 1 2 2 2 1 1 2 2 2 1 0 1 1 0 -2 -2 -1 -2 -4 -3 2 1 -1 0 -1 1 3 4 5 7 5 4 7 6 5 5 5 3 3 2 0 -0 1
-8 -6 -3 0 2 1 2 1 1 1 2 1 3 0 -2 -1 1 1 -2 -2 -3 -2 1 2 2 1 -1 -1 -0 3 5 5 6 6 4 5 7 6 5 4 6 3 2 -1 -1 2 0
-8 -7 -4 -0 1 1 2 1 1 1 1 0 2 0 -1 -3 -2 1 -1 -0 0 1 0 -1 -0 -0 0 0 2 5 2 3 7 5 4 5 7 7 4 2 -2 -3 -0 -2 -3 1 1
-8 -7 -7 -1 0 0 2 1 1 1 1 1 0 1 -0 1 1 1 1 -1 -0 1 -2 -1 -1 1 1 2 4 4 3 6 7 5 2 6 7 5 1 0 -0 -0 0 0 1 -0 0
-8 -7 -8 -1 -1 -3 -1 1 0 1 2 1 1 -2 -1 -2 -2 1 1 1 0 1 1 1 1 1 2 4 4 4 5 5 6 2 4 6 6 5 6 3 2 -0 0 -0 1 1 0
-9 -6 -8 -9 -7 -11 -12 -3 -3 0 1 -3 -2 -3 -5 -3 0 1 1 -1 -2 -1 4 3 2 3 4 4 3 5 4 4 5 4 3 5 5 6 6 5 2 2 -1 -2 2 2 0
-11 -6 -8 -12 -14 -21 -23 -20 -7 -3 1 -3 -3 -2 -3 -7 0 1 -2 -3 -1 1 4 3 4 3 4 4 4 4 5 6 5 5 5 6 6 6 7 6 1 4 2 2 3 3 3
-13 -6 -8 -10 -15 -23 -27 -32 -13 -6 -2 -3 -3 -2 -2 1 1 -2 -1 -1 2 4 5 4 3 3 4 4 5 4 5 4 3 4 3 4 4 5 6 4 3 3 3 2 2 3 7
-14 -6 -7 -8 -9 -17 -27 -32 -23 -7 -3 -2 -2 -2 0 1 1 0 1 1 5 5 3 5 5 4 4 6 5 5 5 6 6 6 6 4 4 3 4 5 3 2 5 8 9 8 6
-14 -7 -7 -7 -8 -12 -24 -29 -31 -8 -2 -2 -2 0 1 1 1 1 3 4 6 4 5 4 4 3 5 2 4 4 3 5 3 4 7 8 7 4 4 5 6 5 5 8 7 5 3
-14 -8 -7 -8 -7 -9 -17 -27 -32 -13 -3 -3 -2 -0 2 2 0 0 3 5 5 5 4 4 3 2 2 3 4 3 2 2 2 1 6 7 7 4 3 1 4 6 7 0 2 -0 1
-15 -10 -7 -8 -7 -8 -14 -27 -30 -23 -3 -2 -2 -0 2 0 1 3 4 4 4 3 2 0 2 2 2 2 3 2 2 1 1 -1 -2 2 6 3 1 -0 -1 1 -0 4 6 5 0
-15 -12 -7 -8 -6 -8 -12 -24 -29 -31 -4 -3 1 3 -0 -0 3 3 5 5 2 1 1 1 1 1 0 2 1 1 2 1 -1 -1 -2 0 2 4 1 3 3 1 2 1 -0 -1 2
-16 -16 -9 -9 -7 -8 -12 -21 -28 -30 -8 -3 1 4 0 -1 4 3 5 3 3 1 0 -0 -0 -0 -0 -0 1 1 1 1 -1 -2 -0 0 3 5 3 0 -1 -0 1 -0 2 2 1
-19 -17 -11 -8 -7 -7 -8 -18 -27 -30 -9 -2 2 2 -0 1 5 5 3 2 2 0 -1 -1 -0 -0 -0 0 2 0 0 0 -1 -1 -1 -1 3 4 3 2 0 2 1 -0 -1 2 6
-19 -18 -11 -8 -6 -7 -7 -10 -23 -28 -17 -1 2 4 3 2 3 2 1 1 1 1 -0 -1 -1 -1 -0 0 -1 1 1 1 -0 -0 -2 -2 0 2 2 4 2 4 2 0 4 6 1
-19 -19 -14 -8 -6 -6 -7 -7 -12 -26 -18 -1 1 2 2 4 2 2 1 1 1 1 0 -1 -1 -1 -1 0 -0 -0 0 1 0 -0 -1 -1 2 1 -0 -0 1 2 2 2 4 3 7
-17 -20 -17 -10 -6 -6 -7 -7 -9 -23 -24 1 2 1 2 2 1 1 2 1 2 1 2 -0 -0 -1 -2 -1 -2 -0 -0 -1 -1 -0 -1 -1 5 3 4 0 1 3 1 1 2 2 1
-14 -19 -18 -12 -8 -5 -7 -7 -8 -18 -25 -0 0 1 2 1 1 1 1 1 1 2 2 1 -1 -1 -0 0 1 -0 -1 -2 -2 -1 -0 0 3 4 2 0 1 4 2 1 1 0 1
-5 -13 -16 -15 -11 -5 -6 -6 -8 -12 -18 -9 -2 0 1 1 1 1 1 1 2 2 2 1 2 1 1 0 -0 -1 -1 -1 -1 -1 -1 1 1 3 3 2 5 2 -1 -1 0 -0 -1
2 -1 -9 -16 -11 -6 -6 -6 -6 -8 -12 -9 -7 0 1 -0 -1 -1 0 1 2 2 2 2 3 2 1 1 1 1 1 1 1 0 -1 -1 -0 3 4 2 -0 -2 -0 0 2 3 -1
4 2 -4 -13 -11 -6 -5 -6 -5 -6 -6 -6 -10 -6 0 -1 -2 -0 0 2 3 2 3 2 4 3 2 2 1 2 2 1 2 2 -0 -0 -0 2 3 4 3 3 1 -0 -1 6 2
4 3 2 -10 -11 -5 -4 -4 -4 -3 -4 -5 -3 -7 -2 -1 -4 -1 -1 2 2 2 3 2 3 3 2 2 3 3 2 -0 2 1 2 2 3 4 3 3 1 -3 1 -1 6 6 2
4 3 2 -4 -8 -4 -3 -3 -5 -3 -3 -4 -2 -4 -3 -4 -4 -4 -2 -1 2 3 3 3 3 3 3 3 2 1 1 0 1 -1 0 2 2 2 1 3 3 -3 1 2 4 2 1
2 2 2 1 -3 -4 -2 -2 -3 -6 -2 -3 -2 -2 -3 -2 -4 -3 -7 -10 -7 -0 0 3 2 1 0 2 0 0 1 2 0 2 -0 1 -1 0 -0 -0 -3 -1 1 0 1 2 2

GFSGBSN_850_dewp_066.txt.gz
Dewpoint
-6 -2 3 4 3 2 3 3 3 2 2 2 3 2 1 1 -1 -1 -0 -0 -1 1 1 -1 -1 -1 0 1 0 -2 3 4 6 7 7 5 3 5 7 6 4 4 2 -0 -0 2 2
-8 -2 2 4 2 3 2 2 2 2 2 2 2 1 2 2 1 0 -2 -0 -1 -1 0 -0 -1 -1 -0 0 -2 -2 -1 1 7 7 7 4 4 3 3 4 5 3 2 1 0 3 1
-8 -4 2 3 2 1 2 2 1 1 2 3 3 2 0 1 1 -1 0 1 -1 1 -0 -1 -1 0 2 -0 -2 2 1 0 6 6 7 4 3 1 4 4 4 3 3 2 1 3 3
-9 -5 1 1 2 1 1 3 0 2 2 2 2 1 -0 0 0 1 -1 -1 -2 -3 -4 -3 -0 1 1 -1 -1 -1 1 1 5 7 7 4 2 3 3 4 4 5 3 6 2 2 2
-9 -6 -2 1 2 1 2 2 1 2 2 1 1 1 -1 -1 -1 1 -2 -2 -2 -3 -4 -4 2 2 -1 -1 -0 -2 -1 1 4 6 6 5 3 5 4 7 7 6 6 5 3 1 1
-9 -6 -4 -1 -0 -2 1 1 2 2 2 1 1 -0 -0 0 -2 1 -0 -3 -4 -1 0 2 2 1 0 -2 -1 -2 1 1 4 6 6 5 4 6 6 7 8 6 6 2 2 2 1
-9 -7 -5 -6 -6 -13 -2 1 2 2 2 2 1 0 -2 -1 1 1 -2 0 1 1 0 -1 -1 -0 -1 1 1 2 2 1 5 7 8 6 6 7 6 5 3 1 2 2 -0 0 2
-11 -6 -6 -9 -15 -21 -12 -5 -3 -1 -2 -1 -1 -1 -2 -3 0 0 0 -1 1 1 -0 -1 -1 -0 1 2 3 3 2 5 6 5 5 6 7 4 3 4 4 2 1 1 -1 1 1
-12 -7 -8 -9 -12 -23 -22 -21 -9 -3 -4 -4 -4 -1 -4 -2 -1 1 1 1 0 0 2 1 2 2 3 2 3 4 4 4 4 5 4 5 4 3 3 3 4 1 1 -0 1 1 0
-13 -7 -8 -8 -9 -15 -25 -25 -23 -9 -5 -3 -4 -3 -4 -2 1 0 -2 -4 -2 -1 3 3 2 3 3 2 3 4 4 5 6 4 4 4 4 5 6 6 3 5 -1 -1 2 3 3
-13 -8 -7 -8 -8 -10 -23 -27 -23 -15 -5 -4 -3 -3 -3 -1 2 -1 -2 -1 -1 2 4 2 3 3 4 4 4 3 5 4 5 4 5 6 6 6 6 5 4 2 1 1 3 3 3
-13 -10 -8 -9 -8 -9 -14 -27 -30 -21 -5 -4 -3 -2 -0 2 2 1 0 2 2 3 5 4 4 4 4 4 4 4 5 4 3 3 3 4 4 5 5 5 7 3 3 3 3 4 7
-14 -12 -8 -9 -8 -8 -10 -25 -28 -28 -6 -3 -2 -0 1 2 3 2 3 2 5 5 3 4 5 5 4 5 5 5 5 6 5 6 6 5 4 3 4 5 5 5 4 7 8 8 7
-15 -14 -10 -9 -9 -8 -9 -19 -27 -30 -7 -4 -2 -0 1 2 2 3 3 4 5 4 5 4 4 2 4 3 5 5 6 6 5 5 7 7 6 5 3 5 6 5 5 7 6 7 4
-17 -16 -12 -10 -10 -9 -9 -17 -27 -29 -10 -4 -2 -1 2 1 1 3 4 5 5 4 4 4 3 3 2 3 4 3 3 5 5 5 7 7 7 4 4 3 5 6 7 1 4 -1 4
-18 -17 -14 -11 -10 -9 -8 -15 -26 -27 -17 -4 -1 2 3 -0 3 4 4 4 5 3 1 1 3 1 2 2 2 2 2 1 1 1 1 4 7 5 4 4 3 6 3 5 5 4 3
-19 -18 -17 -12 -10 -10 -8 -10 -23 -26 -26 -5 0 4 1 -1 3 3 4 4 2 1 1 1 1 0 0 1 1 1 2 1 -1 -1 -1 1 4 5 3 5 5 5 6 3 1 1 4
-17 -19 -19 -14 -11 -10 -8 -7 -14 -26 -24 -7 2 6 1 1 5 4 5 3 2 1 -0 -1 -0 -0 -0 -0 1 1 2 1 -1 -1 0 1 3 5 4 0 -1 0 2 1 4 3 2
-13 -19 -19 -15 -11 -11 -8 -6 -8 -23 -25 -6 2 2 2 3 7 7 3 2 2 0 -1 -1 -0 -0 -1 -0 1 0 1 1 -1 0 1 0 4 4 3 2 0 2 1 1 1 3 6
-6 -15 -19 -16 -12 -11 -8 -6 -7 -19 -25 -2 2 5 3 2 2 3 2 1 1 1 0 -1 -1 -1 -0 0 -1 1 2 1 -0 -0 -2 -1 1 2 4 4 3 3 2 1 2 3 3
-4 -13 -17 -16 -13 -10 -8 -7 -6 -13 -16 -1 1 2 2 5 3 2 1 1 1 1 0 -1 -0 -1 -0 0 -0 0 1 1 0 -1 -1 1 2 1 -0 -0 1 3 2 2 3 3 2
-0 -6 -10 -12 -15 -14 -9 -6 -5 -8 -17 -1 1 1 1 1 1 1 2 2 2 1 1 -0 0 -1 -2 -0 -1 -0 -0 -0 1 0 -1 0 4 2 2 -0 0 2 2 2 2 2 2
2 -0 -2 -5 -12 -15 -9 -6 -5 -7 -14 -4 -8 -0 0 -0 0 1 2 2 2 1 1 0 1 -0 -0 1 0 -1 -1 -2 -2 -0 0 1 3 3 3 1 1 2 2 2 2 1 1
3 2 1 -1 -8 -13 -9 -6 -5 -6 -9 -9 -3 -2 -1 -1 -1 -0 0 1 1 2 3 1 1 1 1 -0 -0 -1 -2 -2 -1 -1 -2 1 3 3 3 2 4 2 -1 -0 1 1 0
3 3 3 1 -5 -10 -8 -6 -5 -5 -7 -7 -4 -2 -1 -1 -5 -6 -2 0 1 1 3 2 2 2 1 1 1 2 1 0 1 -0 -1 -1 1 3 4 3 1 1 -1 0 2 2 -1
3 4 4 2 1 -7 -7 -5 -4 -4 -5 -5 -4 -9 -2 -1 -3 -4 -3 -1 2 3 2 2 3 2 2 3 3 3 4 1 3 3 -0 -0 -0 2 4 4 4 4 -0 -0 -1 6 1
3 4 3 2 2 -1 -5 -4 -3 -3 -3 -3 -3 -4 -3 -3 -5 -2 -3 1 2 3 3 3 3 3 3 3 5 5 3 -1 2 1 3 3 2 3 3 4 2 1 1 -1 6 6 2
-1 2 3 2 1 1 -0 -4 -2 -3 -3 -2 -2 -2 -3 -3 -5 -6 -5 -5 -4 -0 4 3 4 3 3 4 5 3 1 1 0 -1 1 1 3 3 2 4 3 -0 -1 2 3 2 2
-2 0 2 2 2 0 -0 -2 -2 -3 -5 -2 -1 -2 -3 -2 -4 -6 -6 -7 -5 -3 -2 1 3 3 2 3 2 1 1 1 0 2 -1 1 -0 0 -0 1 -1 -2 0 1 2 2 2

GFSGBSN_850_dewp_072.txt.gz
Dewpoint
-7 3 2 1 3 2 2 3 2 3 3 3 2 3 2 2 0 0 -1 -4 0 -2 -2 -2 -2 -2 -1 0 0 1 -1 1 4 -0 5 6 4 7 7 7 7 5 4 3 3 5 5
-10 2 -2 -0 2 1 1 3 2 2 3 2 2 1 3 2 1 -0 -1 -7 -2 -4 -3 -0 -1 -2 -1 1 -0 1 0 3 5 5 6 6 4 6 6 6 6 6 4 3 3 2 2
-11 -2 -3 -3 -0 -2 -0 1 3 1 3 2 2 -2 3 0 -1 -0 -5 -5 -3 -4 -2 -2 -2 -2 -1 -5 -2 0 1 2 4 5 5 5 4 5 5 4 5 5 5 5 4 3 2
-12 -8 -7 -8 -4 -3 -3 -1 0 -1 2 1 -1 -1 1 1 0 -3 -5 -4 -4 -4 -4 -3 -1 -2 -4 -1 -1 -2 -1 0 0 4 6 5 5 2 4 4 5 6 5 7 3 3 2
-13 -10 -8 -10 -8 -4 -8 -4 -3 -2 2 -1 -2 -5 -2 -1 -1 -4 -4 -5 -4 -4 -4 -3 -1 -0 -2 -2 -1 -0 -3 -1 -1 4 5 6 5 4 3 5 6 7 7 6 4 3 3
-14 -11 -9 -10 -10 -7 -8 -15 -6 -5 -1 -2 -3 -6 -3 -2 -4 -3 -2 -1 -1 -0 0 1 1 -1 -2 -0 -1 1 -2 -2 1 5 5 6 5 4 5 5 7 8 6 5 5 3 3
-15 -12 -10 -10 -10 -8 -8 -22 -20 -8 -2 -2 -3 -4 -4 -3 -5 -4 -1 -0 0 -1 0 -1 -1 -1 -1 -0 1 1 -1 -2 3 5 6 6 6 6 5 4 4 5 5 5 4 2 3
-15 -13 -11 -11 -11 -9 -8 -18 -26 -19 -6 -2 -3 -4 -5 -4 -4 -6 -7 -4 0 0 0 0 1 1 0 1 2 1 1 2 4 5 6 7 6 4 4 4 5 5 6 5 1 0 2
-15 -14 -12 -11 -12 -10 -7 -14 -25 -27 -7 -3 -2 -3 -2 -4 -2 -3 -5 -4 -3 -0 1 2 2 1 1 3 2 3 2 3 4 4 6 6 4 4 5 6 6 5 4 3 3 1 1
-15 -15 -14 -11 -12 -10 -7 -11 -25 -27 -13 -4 -2 -1 -1 -2 -1 -1 -2 -2 -1 -2 1 4 3 3 3 1 3 1 4 4 4 4 5 6 3 4 5 6 5 7 2 3 1 3 5
-15 -16 -15 -12 -12 -9 -6 -9 -19 -25 -23 -5 -2 -1 -0 -0 -0 1 2 1 1 2 3 3 3 4 4 3 4 4 3 4 4 4 5 6 5 5 6 5 3 5 5 2 2 3 2
-14 -17 -17 -12 -12 -9 -6 -6 -11 -23 -25 -5 -2 -0 -0 0 2 2 2 1 1 -2 3 4 3 4 4 4 5 4 4 4 4 4 4 5 3 4 5 5 5 5 3 3 3 5 6
-12 -17 -17 -12 -12 -10 -6 -5 -7 -15 -22 -8 -2 -0 1 2 2 2 2 2 -2 2 -0 4 5 4 4 5 5 4 4 6 6 5 6 5 5 4 3 4 3 5 4 7 8 8 6
-10 -16 -16 -12 -12 -11 -7 -5 -6 -10 -18 -11 -2 -0 -0 2 3 3 3 -2 1 2 2 1 3 4 6 5 5 5 5 5 4 3 5 5 7 5 3 4 4 6 6 4 6 6 4
-8 -15 -15 -11 -11 -10 -6 -5 -6 -9 -12 -18 -2 0 0 0 3 4 3 -0 -0 0 1 4 3 3 4 5 5 5 5 5 4 3 4 4 5 3 3 4 3 6 7 4 1 0 2
-7 -13 -13 -10 -10 -8 -5 -5 -6 -9 -11 -16 0 2 2 2 3 3 0 1 3 2 2 3 3 1 3 3 5 5 5 4 4 3 2 3 6 3 4 4 4 5 5 6 1 3 4
-6 -11 -11 -8 -8 -7 -4 -5 -6 -7 -10 -12 -0 3 3 3 4 1 0 -1 3 2 2 2 2 2 -0 1 1 2 2 1 2 3 3 4 2 5 5 5 5 6 6 5 2 1 3
-4 -8 -7 -6 -7 -7 -3 -4 -5 -7 -10 -8 -2 0 3 4 3 1 0 2 2 2 1 1 0 1 1 -0 1 2 2 1 -0 -1 2 2 2 5 5 4 4 4 5 3 4 5 0
-2 -4 -4 -4 -6 -6 -4 -2 -3 -6 -9 -6 0 2 2 3 2 1 2 3 2 1 0 -0 0 -1 -1 0 1 1 2 0 -1 -0 1 1 1 5 5 2 3 6 5 5 2 1 -0
-1 -2 -1 -2 -4 -5 -4 -3 -3 -4 -8 -4 0 -1 -3 2 2 2 2 2 1 1 0 -0 -1 -1 -0 0 -1 1 2 -0 -0 -1 -1 -1 2 1 3 1 2 2 3 5 6 5 2
1 -0 0 -0 -2 -2 -2 -2 -3 -4 -6 -9 -7 1 -0 -2 -2 1 1 2 2 2 0 -0 -0 -1 0 1 -0 1 1 1 0 -0 -1 -1 1 0 -0 1 1 1 2 2 2 3 4
1 1 1 0 -0 -1 -1 -2 -3 -4 -5 -8 -7 -4 -3 -2 -1 0 1 2 3 2 1 1 1 2 1 -0 0 0 1 1 1 -0 -0 -0 1 -1 -1 0 0 1 2 2 2 1 1
2 1 1 0 0 -1 -1 -1 -2 -3 -3 -7 -11 -5 -1 -4 -2 -1 -1 -4 -1 0 1 1 1 2 2 -0 0 -0 -1 -2 -1 1 0 1 0 -1 0 1 0 1 1 1 2 1 1
1 3 2 1 1 -1 -2 -1 -2 -3 -2 -5 -7 -9 -5 -6 -3 -4 -4 -4 -0 -2 1 1 2 2 1 -0 -1 -1 -1 -1 -1 -1 -1 2 0 -0 1 -0 1 -1 -1 -1 -0 0 0
2 1 2 1 1 0 0 0 -1 -3 -2 -4 -5 -7 -7 -6 -4 -6 -5 -5 -5 -6 -2 -0 1 1 2 0 1 2 2 1 0 -1 -1 -0 1 1 2 2 -0 -1 0 0 1 1 -0
3 2 0 -1 -4 0 -0 -0 -1 -2 -2 -3 -4 -4 -5 -4 -5 -5 -4 -3 -2 -1 0 2 2 3 2 2 3 4 5 3 3 2 -0 -0 0 1 3 3 4 -1 -1 -2 -1 4 0
4 3 1 -1 -2 0 1 -0 -0 -2 -2 -3 -3 -3 -3 -4 -5 -5 -4 -4 -5 -3 -2 -2 2 3 3 3 5 4 3 0 3 4 3 3 3 4 3 4 1 -2 -1 -0 4 3 2
3 1 -3 -7 -5 0 1 1 0 -1 -2 -3 -3 -3 -2 -2 -3 -4 -4 -5 -5 -5 -3 -5 -6 3 4 5 5 4 3 1 0 -0 2 3 4 4 4 5 3 -1 -0 3 2 2 2
-3 1 -2 -9 -8 -1 1 -1 0 0 -2 -2 -1 -2 -2 -2 -2 -2 -2 -2 -4 -4 -4 -4 -3 -1 0 4 3 2 1 0 0 2 -1 1 -1 1 1 1 -3 -1 -1 -1 2 2 2

GFSGBSN_850_dewp_075.txt.gz
Dewpoint
-10 -8 -10 3 1 2 -2 2 0 0 3 3 3 3 2 1 -0 -0 -1 -6 -1 -2 -3 -3 -2 -3 0 1 1 1 2 2 1 4 5 6 5 5 7 7 7 5 4 5 7 7 6
-12 -10 -10 -2 0 1 -6 -3 0 -5 2 3 2 2 2 -0 -1 -1 -3 -6 -2 -4 -4 -2 -2 -3 -2 -1 1 0 2 2 -0 2 2 6 5 5 6 6 7 6 4 6 6 7 5
-13 -11 -11 -5 -1 1 -10 -9 -5 -4 1 3 -0 -1 2 -0 -4 -6 -5 -5 -3 -3 -4 -2 -2 -3 -4 -3 -1 2 2 4 4 4 1 5 4 5 5 5 6 6 6 5 4 5 5
-14 -12 -11 -11 -3 1 -7 -12 -6 -2 0 1 -2 -6 -2 -1 -5 -6 -5 -4 -4 -3 -6 -2 -2 -2 -4 -1 -0 -2 -1 1 4 4 4 5 5 5 4 5 6 6 5 7 4 3 4
-13 -12 -11 -11 -10 -1 -4 -17 -6 -5 -3 -1 -4 -7 -5 -3 -4 -4 -5 -5 -4 -4 -4 -2 -0 -1 -2 -1 -1 -2 -2 -1 0 4 5 5 6 4 4 5 6 6 6 7 5 3 3
-13 -13 -12 -11 -11 -7 -5 -19 -12 -11 -5 -4 -3 -5 -5 -5 -3 -2 -2 -1 -1 -0 -0 1 0 -2 -2 -1 -0 -1 -2 -1 0 3 5 7 5 4 4 5 7 7 6 5 5 4 3
-12 -14 -13 -11 -12 -9 -6 -17 -22 -21 -7 -4 -3 -4 -7 -6 -5 -6 -3 -1 -1 -2 -0 2 1 -1 0 1 2 -0 -1 -1 0 4 5 7 6 5 5 3 4 5 4 5 4 2 4
-10 -15 -14 -11 -11 -8 -7 -13 -24 -26 -12 -4 -2 -2 -4 -5 -4 -5 -5 -5 -2 -1 0 2 1 1 0 2 1 1 -0 2 3 6 5 6 6 4 4 3 4 5 5 5 2 1 3
-8 -15 -15 -11 -11 -7 -6 -10 -20 -25 -20 -5 -2 -2 -2 -4 -4 -3 -4 -3 -1 1 1 3 3 2 1 2 1 2 2 3 3 5 5 6 5 4 5 5 5 5 5 4 3 1 1
-7 -15 -15 -11 -11 -7 -5 -6 -11 -23 -24 -5 -2 -1 -1 -2 -2 -1 -1 -2 -2 -1 2 3 3 1 2 2 3 2 3 4 4 4 4 5 4 5 5 6 5 6 3 3 2 3 5
-7 -14 -15 -11 -11 -8 -6 -5 -7 -15 -23 -8 -2 -0 -1 -0 -0 1 2 2 -0 1 1 3 3 4 3 3 2 3 4 4 4 4 4 5 5 5 6 5 4 5 5 3 3 3 3
-6 -13 -14 -11 -10 -9 -6 -5 -6 -10 -18 -10 -2 -0 0 1 1 2 2 2 1 -2 1 4 4 4 5 4 4 3 4 4 4 4 4 5 3 4 5 5 4 5 3 3 4 4 4
-3 -12 -13 -10 -9 -8 -6 -5 -6 -10 -13 -15 -2 -1 1 2 2 3 2 2 -2 1 -1 2 5 4 4 4 4 3 4 5 5 6 6 5 5 4 3 4 3 4 5 8 7 7 6
-2 -11 -12 -9 -8 -7 -5 -5 -6 -11 -11 -16 -2 -1 0 1 3 3 2 -2 1 0 1 1 3 4 6 4 4 5 5 6 4 3 5 5 7 5 4 3 4 5 3 5 6 6 4
-1 -9 -10 -7 -7 -6 -4 -5 -6 -9 -10 -11 -1 1 1 2 3 4 2 -0 -1 -2 -1 3 2 4 6 5 5 5 5 5 4 2 3 3 5 3 4 4 3 5 7 2 1 -0 1
-1 -8 -8 -6 -6 -5 -3 -4 -5 -7 -10 -8 0 1 3 4 4 3 -1 1 2 0 1 3 4 1 3 6 6 6 5 3 4 3 1 2 4 3 4 4 4 4 4 6 3 5 4
-2 -6 -7 -4 -5 -4 -3 -3 -4 -6 -9 -4 2 2 3 4 4 0 1 -1 3 2 2 2 2 2 0 2 5 4 4 2 2 3 2 2 2 4 4 6 5 6 7 6 5 1 3
-2 -4 -4 -3 -4 -4 -3 -3 -4 -4 -8 -4 -2 0 2 3 2 0 -1 1 2 2 1 1 1 1 1 -0 1 2 2 1 0 2 4 2 2 4 4 4 3 3 4 5 4 4 -0
-1 -3 -3 -2 -2 -3 -3 -3 -5 -6 -7 -6 -1 2 1 2 0 0 1 3 2 2 0 -1 0 -0 -1 1 1 1 2 0 -0 0 1 1 4 6 5 4 4 5 4 5 4 -0 -1
-0 -2 -1 -1 -1 -3 -3 -3 -5 -6 -7 -7 -2 -4 -5 -0 0 1 2 2 2 2 1 0 -1 -1 -0 0 -1 0 2 0 -0 -0 -1 1 1 2 3 2 3 6 5 5 6 3 2
1 -0 -1 -0 -2 -3 -2 -4 -4 -5 -6 -9 -8 -1 -3 -4 -5 -0 1 1 3 2 1 -0 0 -0 1 2 0 1 1 1 0 -1 -1 -1 2 1 -0 -1 1 2 2 4 5 5 4
1 -0 0 -1 -2 -3 -3 -3 -4 -6 -8 -8 -8 -6 -4 -3 -2 -1 -0 1 2 1 2 1 1 0 2 1 -0 -0 1 1 1 -0 -0 -0 0 -1 -1 -0 1 2 1 2 4 4 5
1 0 -1 -2 -2 -3 -5 -3 -3 -5 -7 -6 -8 -6 -2 -5 -3 -3 -1 -5 -3 -1 -0 1 2 3 3 1 -0 -0 -1 -1 -1 0 0 1 0 -1 0 1 -0 1 1 1 1 1 2
2 1 1 -1 -2 -2 -3 -1 -1 -3 -5 -5 -5 -7 -6 -7 -4 -6 -4 -5 -3 -1 -2 -5 -6 -1 2 1 -0 -0 -1 -1 -1 -1 -1 1 -1 -1 0 0 2 -1 -3 -1 -1 -1 0
3 2 2 -0 -2 -1 -2 -4 -3 -3 -3 -4 -4 -5 -7 -6 -6 -6 -5 -6 -6 -5 -4 -4 -3 -2 -0 1 2 1 2 1 0 -1 -1 -1 1 2 2 2 -0 -2 -1 0 0 0 -2
3 1 0 -1 -5 -4 -3 -5 -2 -2 -3 -4 -4 -4 -4 -4 -5 -5 -5 -4 -2 -2 -2 -1 -4 -3 3 3 4 4 4 2 3 2 -1 -0 -0 1 1 3 3 -3 -0 -2 -1 2 0
4 2 -1 -3 -9 -12 -5 -5 -1 -1 -2 -3 -3 -4 -3 -3 -4 -5 -4 -4 -5 -4 -4 -4 -3 -7 3 4 5 4 3 1 3 3 3 3 3 3 2 3 1 -3 -3 -1 3 1 2
3 2 1 -11 -15 -11 -8 -7 -1 -0 -1 -2 -2 -3 -2 -2 -3 -2 -3 -4 -5 -5 -4 -5 -5 -2 2 4 4 5 3 1 1 1 2 3 4 4 3 4 3 -2 0 2 0 2 2
0 2 -2 -18 -13 -12 -11 -5 -2 -2 -1 -2 -3 -2 -2 -1 -2 -2 -2 -2 -2 -3 -2 -3 -5 -3 -1 -0 -0 0 4 0 -0 2 -1 2 1 2 1 1 -3 -2 0 -1 -0 2 2

GFSGBSN_850_dewp_078.txt.gz
Dewpoint
-13 -7 -5 -1 -1 -1 -9 -6 1 1 3 3 2 2 2 1 -3 -7 -9 -8 -2 -3 -2 -3 -2 -3 -0 0 1 2 2 1 3 5 5 5 6 4 6 6 6 4 6 7 7 7 6
-13 -10 -9 -3 -1 -1 -7 -11 -3 1 1 2 2 0 1 -2 -6 -8 -8 -8 -6 -6 -3 -2 -2 -3 -2 -2 1 0 2 0 1 5 4 5 5 4 5 6 6 5 4 7 7 6 6
-12 -11 -10 -9 -3 -4 -5 -20 -7 -0 -1 1 1 -6 -1 -3 -6 -6 -6 -7 -7 -6 -5 -3 -2 -3 -3 -2 -0 1 0 1 2 2 4 5 4 5 5 6 6 5 8 6 7 7 7
-11 -13 -12 -10 -9 -3 -3 -20 -19 -4 -2 -1 -1 -6 -5 -4 -6 -5 -5 -6 -6 -6 -7 -3 -3 -3 -3 0 0 -1 -1 1 3 5 2 5 4 5 5 5 6 6 6 8 6 7 7
-10 -14 -12 -10 -11 -7 -3 -19 -23 -13 -3 -2 -2 -4 -5 -6 -5 -3 -4 -4 -4 -5 -4 -1 -2 -1 -2 -1 -1 -1 -1 -0 3 4 1 4 5 4 4 5 6 6 8 6 6 6 7
-9 -14 -13 -10 -11 -7 -6 -14 -23 -22 -8 -2 -2 -3 -6 -7 -6 -4 -2 -2 -1 -0 -0 -0 -1 -3 -2 0 0 -1 -0 1 1 3 2 5 5 4 4 5 6 7 6 6 5 4 6
-6 -13 -14 -10 -11 -7 -6 -9 -21 -24 -17 -5 -2 -2 -4 -5 -6 -7 -3 -1 -2 -2 1 1 1 -1 0 2 1 -0 -0 1 2 4 5 5 6 5 4 3 3 4 4 5 4 3 4
-3 -11 -14 -11 -11 -7 -5 -6 -10 -22 -23 -8 -2 -1 -3 -5 -4 -5 -5 -4 -1 -1 1 1 1 1 1 2 -0 -0 1 1 2 5 4 5 6 3 4 3 4 5 5 5 3 2 4
-1 -9 -14 -11 -10 -8 -6 -5 -6 -12 -22 -12 -2 -1 -1 -3 -4 -3 -4 -3 -2 -1 1 2 1 1 1 1 2 1 3 3 4 4 4 5 5 4 4 4 5 4 4 4 3 1 2
-0 -8 -14 -12 -10 -9 -6 -5 -6 -7 -17 -16 -2 -1 -1 -1 -1 -2 -1 -3 -2 -2 -1 4 3 1 1 1 2 3 3 3 3 5 4 5 4 5 5 5 4 6 3 3 3 3 6
0 -5 -13 -12 -9 -9 -7 -5 -6 -8 -13 -16 -2 -1 -0 0 0 1 1 2 0 0 1 3 3 2 1 2 1 3 3 3 4 4 4 5 5 5 5 5 3 4 4 3 2 3 3
0 -4 -12 -12 -9 -8 -6 -5 -6 -9 -12 -17 -3 -0 1 2 2 2 2 1 0 -2 2 4 4 4 4 3 3 2 3 4 3 4 5 5 4 4 5 4 3 4 3 3 4 3 6
0 -2 -10 -11 -8 -8 -5 -5 -6 -9 -10 -13 -3 -1 1 2 3 2 2 2 -2 0 -2 3 5 4 4 4 4 3 4 4 4 4 6 6 5 4 3 4 4 3 5 5 5 7 6
1 -1 -9 -9 -7 -7 -4 -4 -5 -7 -10 -12 -2 0 1 2 3 3 2 -2 1 0 1 0 3 4 5 3 3 3 4 5 4 4 6 6 7 5 3 3 5 4 4 4 5 6 4
1 -1 -8 -8 -6 -6 -4 -3 -4 -6 -9 -9 -1 2 3 3 3 3 1 -1 -1 -2 -2 3 2 5 4 5 4 4 3 5 4 3 4 4 5 3 4 4 3 5 5 0 3 -0 1
1 -1 -8 -8 -6 -5 -3 -3 -4 -5 -8 -5 -1 2 3 4 4 3 -1 1 1 -1 0 3 3 1 4 5 5 5 5 3 4 2 0 2 4 4 4 4 4 4 3 5 4 5 5
1 -2 -7 -6 -5 -5 -4 -3 -5 -6 -8 -4 1 2 3 4 4 1 -1 -2 2 2 2 2 2 2 1 5 4 4 3 2 2 3 2 1 1 4 4 5 6 6 6 5 3 2 3
1 -2 -5 -5 -4 -4 -3 -4 -7 -7 -8 -5 -2 -1 1 2 1 -1 -1 0 1 2 2 2 1 1 1 0 3 4 3 1 2 3 4 1 1 3 4 4 2 3 4 5 6 4 1
1 -1 -4 -3 -2 -3 -3 -4 -8 -7 -8 -7 -2 -1 0 0 -1 -1 0 1 2 2 0 -0 0 -0 -1 1 1 1 1 -0 1 2 2 2 2 4 6 4 4 5 4 4 4 2 0
1 -0 -3 -2 -1 -3 -3 -6 -9 -10 -9 -9 -5 -4 -7 -3 -1 1 2 1 2 1 2 0 -1 -1 -0 1 -1 0 1 0 -0 0 0 2 2 2 2 1 2 6 4 4 5 6 4
1 -0 -1 -2 -1 -3 -5 -7 -11 -12 -9 -10 -8 -2 -4 -4 -6 -1 0 1 2 3 1 0 0 -0 1 2 0 1 0 1 0 -1 1 1 3 2 1 -1 2 3 4 4 5 5 6
1 0 -1 -1 -2 -5 -9 -13 -14 -14 -11 -11 -8 -6 -4 -5 -4 -2 -1 1 -1 -0 0 2 1 1 1 2 0 0 0 1 1 -0 0 -0 3 -0 0 -0 1 2 2 2 4 4 4
2 1 -1 -1 -3 -5 -12 -17 -19 -19 -15 -9 -8 -7 -6 -5 -4 -5 -3 -4 -5 -4 -6 -1 -5 -5 1 3 1 -0 -1 -1 -1 0 0 0 1 0 1 0 -0 1 1 1 1 2 3
2 1 -0 -2 -2 -4 -8 -19 -21 -16 -13 -8 -7 -7 -7 -7 -5 -7 -5 -6 -6 -5 -1 -3 -5 -5 -4 -3 -1 1 0 -0 -1 -1 -1 0 -0 -1 1 -0 2 -2 -4 -2 -0 -1 1
2 1 1 -0 -1 -3 -8 -19 -15 -11 -8 -7 -7 -6 -6 -6 -7 -6 -6 -6 -6 -5 -3 -3 -3 -1 -4 2 1 4 2 1 0 -1 -0 -2 0 3 4 2 -0 -1 -2 -0 0 -0 -2
3 3 1 0 -1 -4 -9 -15 -14 -10 -7 -6 -6 -5 -4 -5 -5 -5 -5 -5 -3 -3 -3 -3 -6 -7 -7 2 3 5 5 2 3 2 -1 -0 -0 2 2 4 3 -4 -1 -2 -2 2 -1
4 3 3 0 -2 -8 -14 -11 -12 -7 -3 -5 -5 -4 -3 -3 -4 -5 -5 -4 -5 -4 -4 -5 -4 -5 -5 2 3 4 4 0 3 3 3 3 4 4 3 4 0 -2 -4 -1 3 -0 2
4 3 2 -3 -4 -12 -17 -13 -9 -7 -2 -3 -3 -3 -3 -3 -3 -3 -4 -4 -4 -4 -4 -4 -4 -2 -0 2 4 3 4 2 1 1 2 3 3 4 4 5 3 -3 -0 1 -1 1 2
5 3 2 -2 -3 -12 -10 -12 -8 -5 -4 -2 -2 -2 -2 -2 -3 -2 -3 -5 -4 -3 -3 -3 -4 -4 -3 -1 -1 -1 3 2 1 2 -1 2 1 2 1 1 -3 -2 -0 -1 -0 0 2

GFSGBSN_850_dewp_084.txt.gz
Dewpoint
-6 -10 -12 -11 -9 -6 -2 -10 -10 -3 1 2 3 3 2 2 -7 -7 -7 -9 -7 -5 -4 -4 -4 -4 -2 -1 0 2 2 3 3 5 6 4 4 3 3 4 6 6 6 6 7 6 6
0 -9 -12 -12 -9 -8 -4 -9 -14 -11 -1 2 2 3 -2 3 -0 -6 -6 -7 -7 -6 -5 -5 -5 -4 -2 -2 0 1 1 2 3 5 6 5 4 3 3 5 5 5 5 6 6 6 5
0 -2 -9 -12 -9 -9 -5 -4 -17 -18 -5 1 1 3 -0 -4 -3 -5 -6 -7 -7 -8 -8 -6 -6 -2 -1 -0 -0 0 -0 2 3 5 5 5 5 5 2 5 4 4 6 6 6 6 6
2 1 -7 -12 -10 -9 -5 -5 -8 -18 -10 -6 -1 2 2 -6 -6 -6 -5 -6 -6 -7 -7 -5 -5 -3 -1 -1 -1 -1 0 2 3 2 4 5 5 5 4 5 5 4 3 6 5 6 6
5 0 -4 -11 -12 -9 -7 -5 -4 -7 -13 -13 -5 -1 0 -5 -6 -7 -5 -4 -3 -0 -2 -4 -4 -3 -2 -1 -2 -1 0 2 3 4 4 6 3 5 5 5 6 5 5 4 7 6 5
5 3 -1 -9 -13 -9 -8 -6 -5 -5 -5 -17 -15 -2 -1 -3 -5 -6 -7 -4 -3 -1 -2 -3 -2 -2 -0 1 -0 1 1 2 3 4 5 5 5 4 4 5 6 6 4 3 4 5 5
8 5 0 -6 -13 -10 -9 -7 -5 -5 -6 -10 -17 -3 -1 -2 -5 -5 -6 -3 -2 -0 1 1 1 1 1 0 0 1 2 3 3 3 4 4 6 4 2 3 2 3 4 4 3 4 5
8 5 2 -3 -12 -11 -9 -8 -5 -6 -8 -11 -16 -3 -1 -2 -4 -4 -5 -4 -3 -1 1 2 0 1 1 -0 -1 2 3 3 3 3 3 4 6 1 3 3 2 3 2 2 3 3 5
7 5 3 -2 -10 -12 -9 -7 -5 -7 -10 -12 -13 -2 -1 -1 -2 -3 -3 -4 -3 -0 2 2 2 2 2 1 2 3 3 3 2 2 3 5 5 2 2 3 3 2 2 3 3 2 4
7 5 3 -1 -7 -11 -8 -7 -5 -6 -9 -10 -12 -2 -0 0 -0 -0 -1 -2 -3 -1 5 2 2 1 2 1 2 3 3 3 2 3 3 4 3 3 3 3 2 4 3 3 3 4 5
6 5 4 -1 -6 -10 -7 -6 -4 -5 -7 -9 -11 -1 -0 1 1 2 1 1 1 -1 5 1 2 0 1 -0 1 2 3 4 2 3 3 6 5 4 4 3 2 2 3 3 3 4 4
6 5 4 -1 -4 -9 -7 -5 -3 -4 -6 -8 -8 -1 1 2 2 2 1 0 -0 4 5 4 3 2 2 2 1 2 3 4 3 3 4 5 4 2 1 3 2 2 3 3 2 3 5
7 5 5 -0 -3 -9 -6 -4 -3 -4 -6 -8 -2 1 2 2 2 2 1 1 5 6 -0 3 2 2 2 2 2 1 2 3 4 5 6 5 5 4 4 4 3 3 3 6 7 7 4
6 5 5 1 -2 -8 -6 -4 -4 -5 -7 -7 -1 2 3 3 2 2 1 1 7 2 3 1 2 2 3 2 1 1 1 3 2 2 6 7 6 5 3 3 5 3 2 3 4 3 1
6 5 5 1 -2 -7 -5 -4 -4 -7 -7 -3 -1 1 3 3 3 2 1 7 3 3 1 2 2 4 3 3 3 2 1 0 1 2 5 5 6 3 4 3 3 5 6 1 4 1 3
7 6 5 1 -2 -6 -4 -4 -5 -8 -7 -2 0 1 2 3 3 2 2 4 3 -1 -0 2 3 2 2 3 3 3 1 -0 2 2 1 2 5 4 4 3 3 4 1 5 6 6 4
8 6 5 0 -2 -6 -4 -5 -7 -7 -7 -2 0 2 1 2 2 1 7 3 2 1 1 2 2 2 1 3 3 3 3 1 1 2 1 1 2 5 5 6 7 5 4 4 2 2 4
9 6 5 0 -3 -5 -4 -5 -8 -8 -7 -1 2 2 -0 1 2 1 3 1 1 1 2 2 1 1 1 0 4 4 3 1 1 2 3 0 2 5 4 3 2 3 2 3 4 4 3
9 6 5 0 -3 -4 -3 -5 -9 -9 -9 -4 -2 0 -2 -0 3 1 -1 -0 2 2 1 1 1 0 -0 1 2 1 1 0 2 2 3 1 5 6 5 4 3 5 3 3 2 3 6
9 6 5 0 -2 -3 -3 -6 -11 -13 -12 -7 -5 0 -5 -3 -1 -2 -2 -1 0 1 1 1 0 -1 0 1 -0 2 1 0 1 2 2 1 4 3 2 2 1 4 3 3 5 7 3
8 6 5 0 -2 -3 -3 -7 -15 -16 -14 -12 -10 -5 -8 -1 -6 -3 -2 -0 0 0 1 0 1 0 1 1 0 0 0 0 1 3 3 3 6 4 2 1 2 3 3 3 5 5 5
7 6 5 0 -2 -3 -4 -9 -16 -17 -17 -15 -12 -7 -6 -5 -4 -4 -3 -2 1 -1 -2 -1 1 -1 -2 2 2 5 3 3 3 2 4 4 6 5 6 4 2 3 2 2 2 3 2
7 6 5 1 -2 -2 -4 -14 -21 -23 -20 -14 -15 -14 -11 -5 -5 -7 -8 -3 -4 -5 -7 -5 -4 -3 -3 -5 -3 -2 2 1 0 3 4 3 4 4 5 3 4 5 2 1 1 1 2
7 6 4 0 -1 -2 -6 -20 -24 -24 -22 -20 -20 -16 -10 -9 -7 -8 -6 -5 -6 -6 -6 -6 -6 -5 -4 -4 -4 -4 -3 -1 0 1 1 4 4 4 4 1 5 -2 -3 -1 -0 -1 -1
8 7 2 0 -1 -2 -9 -19 -23 -22 -21 -19 -21 -19 -16 -10 -8 -7 -7 -6 -6 -5 -4 -4 -4 -4 -5 -6 -1 1 1 1 2 1 3 3 4 5 4 3 -0 -1 -2 -2 -1 -2 -3
8 7 2 0 -1 -4 -10 -19 -23 -23 -23 -21 -22 -20 -17 -8 -8 -7 -6 -5 -5 -5 -5 -5 -5 -6 -5 -4 -0 1 -1 2 5 3 1 1 2 4 4 4 2 -4 -2 -3 -3 0 -2
8 6 2 1 -1 -5 -8 -16 -24 -24 -23 -20 -19 -18 -13 -6 -7 -6 -6 -5 -4 -4 -4 -4 -5 -5 -2 -0 -0 1 -1 2 2 4 3 4 5 5 4 4 1 -3 -2 -2 -0 -1 0
8 6 2 1 -0 -3 -6 -13 -23 -23 -22 -20 -15 -13 -14 -7 -6 -6 -5 -4 -4 -4 -4 -4 -4 -3 -4 -1 -1 -1 0 2 3 2 3 3 4 4 3 4 3 -3 -1 -1 -3 0 1
8 5 3 1 1 -1 -3 -13 -22 -23 -22 -20 -15 -9 -10 -6 -5 -4 -4 -4 -4 -3 -4 -2 -4 -4 -4 -4 -3 -4 -3 -2 0 1 0 4 1 1 1 -1 -2 -2 -3 -3 -1 -0 1